| time (UTC) | temp F | wind direction | speed MPH | gust MPH | rain 1hr in | rain 24hr in | rain mn in | humidity % | barometer mb |
| 20260505163438 | 50 | 226 | 5.0 | 8.0 | 0.01 | 0.03 | 0.02 | 83 | 1006.9 |
| 20260505163427 | 50 | 193 | 2.0 | 8.0 | 0.01 | 0.03 | 0.02 | 82 | 1006.9 |
| 20260505163423 | 50 | 277 | 4.0 | 8.0 | 0.01 | 0.03 | 0.02 | 82 | 1006.9 |
| 20260505163414 | 51 | 230 | 4.0 | 6.0 | 0.01 | 0.03 | 0.02 | 82 | 1007.3 |
| 20260505163154 | 51 | 216 | 2.0 | 6.0 | 0.01 | 0.03 | 0.02 | 83 | 1006.9 |
| 20260505163145 | 51 | 238 | 1.0 | 6.0 | 0.01 | 0.03 | 0.02 | 82 | 1006.9 |
| 20260505162925 | 51 | 191 | 0.0 | 6.0 | 0.01 | 0.03 | 0.02 | 82 | 1007.3 |
| 20260505162914 | 51 | 197 | 2.0 | 6.0 | 0.01 | 0.03 | 0.02 | 81 | 1007.3 |
| 20260505162910 | 51 | 312 | 2.0 | 6.0 | 0.01 | 0.03 | 0.02 | 81 | 1006.9 |
| 20260505162901 | 51 | 213 | 2.0 | 7.0 | 0.01 | 0.03 | 0.02 | 82 | 1006.9 |
| 20260505162638 | 51 | 203 | 1.0 | 7.0 | 0.01 | 0.03 | 0.02 | 81 | 1006.9 |
| 20260505162629 | 51 | 225 | 3.0 | 7.0 | 0.00 | 0.02 | 0.02 | 80 | 1006.9 |
| 20260505162618 | 51 | 182 | 3.0 | 7.0 | 0.00 | 0.02 | 0.01 | 82 | 1006.9 |
| 20260505162354 | 51 | 286 | 1.0 | 7.0 | 0.00 | 0.02 | 0.01 | 81 | 1006.9 |
| 20260505162129 | 52 | 240 | 2.0 | 7.0 | 0.00 | 0.02 | 0.01 | 80 | 1006.9 |
| 20260505162119 | 52 | 237 | 4.0 | 7.0 | 0.00 | 0.02 | 0.01 | 79 | 1006.9 |
| 20260505162110 | 52 | 257 | 3.0 | 7.0 | 0.00 | 0.02 | 0.01 | 79 | 1007.3 |
| 20260505161844 | 52 | 222 | 1.0 | 7.0 | 0.00 | 0.02 | 0.01 | 79 | 1007.3 |
| 20260505161840 | 52 | 260 | 3.0 | 7.0 | 0.00 | 0.02 | 0.01 | 79 | 1007.3 |
| 20260505161832 | 52 | 193 | 2.0 | 4.0 | 0.00 | 0.02 | 0.01 | 78 | 1007.3 |
| 20260505161607 | 52 | 153 | 0.0 | 4.0 | 0.00 | 0.02 | 0.01 | 80 | 1006.9 |
| 20260505161558 | 52 | 241 | 3.0 | 4.0 | 0.00 | 0.02 | 0.01 | 80 | 1006.9 |
| 20260505161549 | 52 | 216 | 2.0 | 3.0 | 0.00 | 0.02 | 0.01 | 80 | 1007.3 |
| 20260505161328 | 52 | 243 | 2.0 | 3.0 | 0.00 | 0.02 | 0.01 | 78 | 1007.3 |
| 20260505161319 | 52 | 303 | 0.0 | 3.0 | 0.00 | 0.02 | 0.01 | 79 | 1007.3 |
| 20260505161056 | 52 | 282 | 0.0 | 3.0 | 0.00 | 0.02 | 0.01 | 79 | 1007.3 |
| 20260505161046 | 53 | 311 | 1.0 | 3.0 | 0.00 | 0.02 | 0.01 | 78 | 1007.3 |
| 20260505161036 | 53 | 344 | 0.0 | 3.0 | 0.00 | 0.02 | 0.01 | 79 | 1007.3 |
| 20260505160715 | 53 | 4 | 0.0 | 3.0 | 0.00 | 0.02 | 0.01 | 78 | 1007.3 |
| 20260505160610 | 53 | 350 | 1.0 | 4.0 | 0.00 | 0.02 | 0.01 | 79 | 1007.3 |
| 20260505160545 | 53 | 272 | 2.0 | 8.0 | 0.00 | 0.02 | 0.01 | 77 | 1006.9 |
| 20260505160539 | 53 | 214 | 1.0 | 6.0 | 0.00 | 0.02 | 0.01 | 79 | 1007.3 |
| 20260505160530 | 53 | 318 | 1.0 | 8.0 | 0.00 | 0.02 | 0.01 | 78 | 1006.9 |
| 20260505160253 | 53 | 266 | 2.0 | 8.0 | 0.00 | 0.02 | 0.01 | 77 | 1006.9 |
| 20260505160148 | 53 | 268 | 2.0 | 8.0 | 0.00 | 0.02 | 0.01 | 78 | 1006.9 |
| 20260505153317 | 55 | 259 | 1.0 | 6.0 | 0.00 | 0.02 | 0.01 | 68 | 1006.6 |
| 20260505153211 | 55 | 224 | 2.0 | 6.0 | 0.00 | 0.02 | 0.01 | 69 | 1006.6 |
| 20260505153119 | 55 | 232 | 3.0 | 6.0 | 0.00 | 0.02 | 0.01 | 69 | 1006.1 |
| 20260505153000 | 55 | 225 | 2.0 | 6.0 | 0.00 | 0.02 | 0.01 | 68 | 1006.1 |
| 20260505152853 | 56 | 233 | 2.0 | 6.0 | 0.00 | 0.02 | 0.01 | 67 | 1006.6 |
| 20260505152748 | 56 | 263 | 2.0 | 4.0 | 0.00 | 0.02 | 0.01 | 68 | 1006.6 |
| 20260505152721 | 56 | 314 | 1.0 | 4.0 | 0.00 | 0.02 | 0.01 | 68 | 1006.1 |
| 20260505152642 | 56 | 331 | 1.0 | 4.0 | 0.00 | 0.02 | 0.01 | 68 | 1006.1 |
| 20260505152537 | 56 | 233 | 2.0 | 4.0 | 0.00 | 0.02 | 0.01 | 67 | 1006.1 |
| 20260505152431 | 56 | 263 | 3.0 | 4.0 | 0.00 | 0.02 | 0.01 | 68 | 1006.1 |
| 20260505152326 | 56 | 330 | 2.0 | 3.0 | 0.00 | 0.02 | 0.01 | 67 | 1006.1 |
| 20260505152220 | 56 | 258 | 0.0 | 3.0 | 0.00 | 0.02 | 0.01 | 68 | 1006.1 |
| 20260505152115 | 56 | 311 | 1.0 | 6.0 | 0.00 | 0.02 | 0.01 | 69 | 1005.8 |
| 20260505152009 | 56 | 146 | 0.0 | 8.0 | 0.00 | 0.02 | 0.01 | 71 | 1005.8 |
| 20260505151903 | 56 | 213 | 1.0 | 8.0 | 0.00 | 0.02 | 0.01 | 69 | 1006.1 |
| 20260505151758 | 56 | 211 | 3.0 | 8.0 | 0.00 | 0.02 | 0.01 | 70 | 1005.8 |
| 20260505151709 | 56 | 195 | 0.0 | 8.0 | 0.00 | 0.02 | 0.01 | 70 | 1006.1 |
| 20260505151652 | 56 | 292 | 1.0 | 8.0 | 0.00 | 0.02 | 0.01 | 70 | 1006.1 |
| 20260505151558 | 56 | 327 | 1.0 | 8.0 | 0.00 | 0.02 | 0.01 | 70 | 1005.8 |
| 20260505151438 | 56 | 280 | 3.0 | 8.0 | 0.00 | 0.02 | 0.01 | 69 | 1006.1 |
| 20260505151333 | 56 | 176 | 2.0 | 8.0 | 0.00 | 0.02 | 0.01 | 68 | 1006.1 |
| 20260505151227 | 56 | 217 | 1.0 | 8.0 | 0.00 | 0.02 | 0.01 | 69 | 1006.1 |
| 20260505151201 | 56 | 220 | 2.0 | 8.0 | 0.00 | 0.02 | 0.01 | 69 | 1006.1 |
| 20260505151122 | 56 | 249 | 2.0 | 8.0 | 0.00 | 0.02 | 0.01 | 69 | 1006.1 |
| 20260505151016 | 56 | 268 | 2.0 | 4.0 | 0.00 | 0.02 | 0.01 | 70 | 1006.1 |
| 20260505150910 | 56 | 256 | 3.0 | 4.0 | 0.00 | 0.02 | 0.01 | 70 | 1005.8 |
| 20260505150805 | 56 | 310 | 1.0 | 3.0 | 0.00 | 0.02 | 0.01 | 71 | 1005.8 |
| 20260505150659 | 56 | 247 | 1.0 | 3.0 | 0.00 | 0.02 | 0.01 | 70 | 1005.8 |
| 20260505150553 | 56 | 251 | 1.0 | 3.0 | 0.00 | 0.02 | 0.01 | 70 | 1006.1 |
| 20260505150447 | 56 | 221 | 1.0 | 3.0 | 0.00 | 0.02 | 0.01 | 70 | 1006.1 |
| 20260505150342 | 56 | 293 | 2.0 | 3.0 | 0.00 | 0.02 | 0.01 | 69 | 1005.8 |
| 20260505150249 | 56 | 218 | 3.0 | 3.0 | 0.00 | 0.02 | 0.01 | 69 | 1005.8 |
| 20260505150148 | 56 | 212 | 3.0 | 4.0 | 0.00 | 0.02 | 0.01 | 70 | 1005.8 |
| 20260505150130 | 56 | 240 | 2.0 | 4.0 | 0.00 | 0.02 | 0.01 | 71 | 1005.8 |
| 20260505140647 | 56 | 166 | 0.0 | 4.0 | 0.00 | 0.02 | 0.01 | 71 | 1005.5 |
| 20260505140540 | 56 | 331 | 2.0 | 4.0 | 0.00 | 0.02 | 0.01 | 71 | 1005.5 |
| 20260505140435 | 56 | 113 | 0.0 | 6.0 | 0.00 | 0.02 | 0.01 | 70 | 1005.5 |
| 20260505140342 | 56 | 350 | 2.0 | 6.0 | 0.00 | 0.02 | 0.01 | 71 | 1005.5 |
| 20260505140223 | 56 | 298 | 1.0 | 6.0 | 0.00 | 0.02 | 0.01 | 71 | 1005.5 |
| 20260505140119 | 56 | 292 | 1.0 | 6.0 | 0.00 | 0.02 | 0.01 | 71 | 1005.5 |
| 20260505130154 | 57 | 341 | 5.0 | 9.0 | 0.00 | 0.02 | 0.01 | 73 | 1003.8 |
| 20260505130145 | 58 | 70 | 2.0 | 6.0 | 0.00 | 0.02 | 0.01 | 73 | 1003.8 |
| 20260505124859 | 58 | 211 | 2.0 | 6.0 | 0.00 | 0.02 | 0.01 | 71 | 1003.4 |
| 20260505124850 | 58 | 279 | 2.0 | 6.0 | 0.00 | 0.02 | 0.01 | 71 | 1003.4 |
| 20260505124841 | 58 | 142 | 3.0 | 6.0 | 0.00 | 0.02 | 0.01 | 71 | 1003.4 |
| 20260505124620 | 58 | 238 | 3.0 | 6.0 | 0.00 | 0.02 | 0.01 | 71 | 1003.4 |
| 20260505124558 | 59 | 298 | 4.0 | 6.0 | 0.00 | 0.02 | 0.01 | 71 | 1003.4 |
| 20260505124547 | 59 | 264 | 2.0 | 4.0 | 0.00 | 0.02 | 0.01 | 71 | 1003.4 |
| 20260505124329 | 59 | 137 | 2.0 | 4.0 | 0.00 | 0.02 | 0.01 | 71 | 1003.4 |
| 20260505124321 | 59 | 209 | 4.0 | 4.0 | 0.00 | 0.02 | 0.01 | 71 | 1003.8 |
| 20260505124311 | 59 | 230 | 2.0 | 4.0 | 0.00 | 0.02 | 0.01 | 72 | 1003.8 |
| 20260505124045 | 59 | 207 | 1.0 | 4.0 | 0.00 | 0.02 | 0.01 | 72 | 1003.4 |
| 20260505124036 | 59 | 250 | 4.0 | 6.0 | 0.00 | 0.02 | 0.01 | 71 | 1003.4 |
| 20260505124025 | 59 | 239 | 1.0 | 6.0 | 0.00 | 0.02 | 0.01 | 72 | 1003.4 |
| 20260505123806 | 59 | 231 | 2.0 | 6.0 | 0.00 | 0.02 | 0.01 | 72 | 1003.8 |
| 20260505123757 | 59 | 123 | 0.0 | 6.0 | 0.00 | 0.02 | 0.01 | 72 | 1003.8 |
| 20260505123736 | 58 | 184 | 0.0 | 6.0 | 0.00 | 0.02 | 0.01 | 72 | 1003.4 |
| 20260505123727 | 58 | 111 | 0.0 | 6.0 | 0.00 | 0.02 | 0.01 | 73 | 1003.4 |
| 20260505123716 | 58 | 116 | 0.0 | 6.0 | 0.00 | 0.02 | 0.01 | 73 | 1003.8 |
| 20260505123242 | 58 | 226 | 3.0 | 6.0 | 0.00 | 0.02 | 0.01 | 73 | 1003.8 |
| 20260505123233 | 58 | 264 | 3.0 | 7.0 | 0.00 | 0.02 | 0.01 | 73 | 1003.8 |
| 20260505123224 | 58 | 260 | 4.0 | 7.0 | 0.00 | 0.02 | 0.01 | 72 | 1003.8 |
| 20260505123001 | 58 | 317 | 2.0 | 7.0 | 0.00 | 0.02 | 0.01 | 73 | 1003.8 |
| 20260505122949 | 58 | 205 | 2.0 | 7.0 | 0.00 | 0.02 | 0.01 | 72 | 1003.4 |
| 20260505122945 | 58 | 232 | 3.0 | 7.0 | 0.00 | 0.02 | 0.01 | 73 | 1003.4 |
| 20260505122721 | 58 | 165 | 1.0 | 7.0 | 0.00 | 0.02 | 0.01 | 73 | 1003.4 |
| 20260505122711 | 58 | 213 | 2.0 | 7.0 | 0.00 | 0.02 | 0.01 | 73 | 1003.4 |
| 20260505122702 | 58 | 201 | 2.0 | 7.0 | 0.00 | 0.02 | 0.01 | 74 | 1003.4 |
| 20260505122653 | 58 | 244 | 1.0 | 7.0 | 0.00 | 0.02 | 0.01 | 74 | 1003.4 |
| 20260505122428 | 58 | 308 | 2.0 | 7.0 | 0.00 | 0.02 | 0.01 | 74 | 1003.4 |
| 20260505122208 | 58 | 43 | 2.0 | 6.0 | 0.00 | 0.02 | 0.01 | 75 | 1003.4 |
| 20260505122159 | 58 | 266 | 2.0 | 7.0 | 0.00 | 0.02 | 0.01 | 75 | 1003.4 |
| 20260505121937 | 58 | 5 | 4.0 | 7.0 | 0.00 | 0.02 | 0.01 | 74 | 1003.4 |
| 20260505121921 | 58 | 200 | 0.0 | 7.0 | 0.00 | 0.02 | 0.01 | 76 | 1003.4 |
| 20260505121859 | 58 | 234 | 1.0 | 7.0 | 0.00 | 0.02 | 0.01 | 75 | 1003.4 |
| 20260505121636 | 58 | 247 | 1.0 | 7.0 | 0.00 | 0.02 | 0.01 | 75 | 1003.4 |
| 20260505121627 | 58 | 215 | 3.0 | 7.0 | 0.00 | 0.02 | 0.01 | 76 | 1003.4 |
| 20260505121618 | 58 | 236 | 1.0 | 7.0 | 0.00 | 0.02 | 0.01 | 76 | 1003.4 |
| 20260505121352 | 58 | 238 | 2.0 | 7.0 | 0.00 | 0.02 | 0.01 | 76 | 1003.4 |
| 20260505121343 | 58 | 280 | 3.0 | 7.0 | 0.00 | 0.02 | 0.01 | 76 | 1003.4 |
| 20260505121118 | 58 | 260 | 4.0 | 6.0 | 0.00 | 0.02 | 0.01 | 77 | 1003.4 |
| 20260505121109 | 58 | 294 | 4.0 | 4.0 | 0.00 | 0.02 | 0.01 | 77 | 1003.4 |
| 20260505120846 | 58 | 226 | 2.0 | 4.0 | 0.00 | 0.02 | 0.01 | 77 | 1003.4 |
| 20260505120823 | 58 | 252 | 2.0 | 4.0 | 0.00 | 0.02 | 0.01 | 78 | 1003.4 |
| 20260505120819 | 57 | 228 | 1.0 | 4.0 | 0.00 | 0.02 | 0.01 | 77 | 1003.4 |
| 20260505120810 | 57 | 195 | 1.0 | 4.0 | 0.00 | 0.02 | 0.01 | 78 | 1003.4 |
| 20260505120547 | 57 | 217 | 4.0 | 4.0 | 0.00 | 0.02 | 0.01 | 78 | 1003.4 |
| 20260505120538 | 57 | 230 | 3.0 | 4.0 | 0.00 | 0.02 | 0.01 | 78 | 1003.4 |
| 20260505120510 | 57 | 221 | 4.0 | 4.0 | 0.00 | 0.02 | 0.01 | 78 | 1003.4 |
| 20260505120245 | 57 | 254 | 2.0 | 6.0 | 0.00 | 0.02 | 0.01 | 78 | 1003.4 |
| 20260505120237 | 57 | 255 | 3.0 | 6.0 | 0.00 | 0.02 | 0.01 | 79 | 1003.8 |
| 20260505120015 | 57 | 262 | 2.0 | 6.0 | 0.00 | 0.02 | 0.01 | 79 | 1003.8 |
| 20260505120006 | 56 | 272 | 1.0 | 6.0 | 0.00 | 0.02 | 0.01 | 80 | 1003.8 |
| 20260505115730 | 56 | 144 | 1.0 | 6.0 | 0.00 | 0.02 | 0.01 | 80 | 1003.8 |
| 20260505115623 | 56 | 224 | 3.0 | 6.0 | 0.00 | 0.02 | 0.01 | 81 | 1003.8 |
| 20260505115517 | 56 | 200 | 2.0 | 6.0 | 0.00 | 0.02 | 0.01 | 81 | 1003.8 |
| 20260505115412 | 56 | 239 | 0.0 | 6.0 | 0.00 | 0.02 | 0.01 | 81 | 1003.8 |
| 20260505115307 | 56 | 265 | 2.0 | 6.0 | 0.00 | 0.02 | 0.01 | 81 | 1003.8 |
| 20260505115239 | 56 | 351 | 2.0 | 6.0 | 0.00 | 0.02 | 0.01 | 81 | 1003.8 |
| 20260505115201 | 56 | 277 | 2.0 | 6.0 | 0.00 | 0.02 | 0.01 | 81 | 1003.1 |
| 20260505115055 | 56 | 288 | 3.0 | 6.0 | 0.00 | 0.02 | 0.01 | 81 | 1003.1 |
| 20260505114950 | 56 | 261 | 2.0 | 6.0 | 0.00 | 0.02 | 0.01 | 81 | 1003.1 |
| 20260505114844 | 56 | 274 | 5.0 | 6.0 | 0.00 | 0.02 | 0.01 | 81 | 1003.1 |
| 20260505114738 | 56 | 174 | 2.0 | 4.0 | 0.00 | 0.02 | 0.01 | 82 | 1003.1 |
| 20260505114633 | 56 | 263 | 3.0 | 4.0 | 0.00 | 0.02 | 0.01 | 82 | 1003.1 |
| 20260505114527 | 56 | 214 | 2.0 | 4.0 | 0.00 | 0.02 | 0.01 | 82 | 1003.1 |
| 20260505114434 | 56 | 166 | 1.0 | 7.0 | 0.00 | 0.02 | 0.01 | 82 | 1003.1 |
| 20260505114315 | 56 | 232 | 2.0 | 7.0 | 0.00 | 0.02 | 0.01 | 82 | 1003.1 |
| 20260505114227 | 56 | 196 | 1.0 | 7.0 | 0.00 | 0.02 | 0.01 | 82 | 1003.1 |
| 20260505114210 | 56 | 210 | 1.0 | 7.0 | 0.00 | 0.02 | 0.01 | 82 | 1003.1 |
| 20260505114104 | 56 | 324 | 1.0 | 7.0 | 0.00 | 0.02 | 0.01 | 82 | 1003.1 |
| 20260505113959 | 56 | 117 | 1.0 | 7.0 | 0.00 | 0.02 | 0.01 | 82 | 1003.1 |
| 20260505113853 | 56 | 162 | 2.0 | 7.0 | 0.00 | 0.02 | 0.01 | 82 | 1003.1 |
| 20260505113748 | 56 | 237 | 2.0 | 7.0 | 0.00 | 0.02 | 0.01 | 82 | 1003.1 |
| 20260505113720 | 56 | 251 | 2.0 | 7.0 | 0.00 | 0.02 | 0.01 | 82 | 1003.1 |
| 20260505113642 | 56 | 235 | 1.0 | 7.0 | 0.00 | 0.02 | 0.01 | 82 | 1003.1 |
| 20260505113536 | 56 | 200 | 2.0 | 7.0 | 0.00 | 0.02 | 0.01 | 82 | 1003.1 |
| 20260505113431 | 56 | 266 | 3.0 | 7.0 | 0.00 | 0.02 | 0.01 | 82 | 1002.8 |
| 20260505113325 | 56 | 247 | 2.0 | 7.0 | 0.00 | 0.02 | 0.01 | 82 | 1002.8 |
| 20260505113219 | 56 | 224 | 1.0 | 6.0 | 0.00 | 0.02 | 0.01 | 83 | 1002.8 |
| 20260505113114 | 56 | 254 | 3.0 | 6.0 | 0.00 | 0.02 | 0.01 | 83 | 1002.8 |
| 20260505113008 | 56 | 224 | 4.0 | 6.0 | 0.00 | 0.02 | 0.01 | 83 | 1002.8 |
| 20260505112903 | 56 | 230 | 2.0 | 6.0 | 0.00 | 0.02 | 0.01 | 83 | 1002.8 |
| 20260505112757 | 56 | 311 | 4.0 | 7.0 | 0.00 | 0.02 | 0.01 | 83 | 1002.8 |
| 20260505112708 | 56 | 196 | 3.0 | 7.0 | 0.00 | 0.02 | 0.01 | 83 | 1002.8 |
| 20260505112652 | 56 | 196 | 3.0 | 7.0 | 0.00 | 0.02 | 0.01 | 83 | 1002.8 |
| 20260505112546 | 56 | 239 | 4.0 | 7.0 | 0.00 | 0.02 | 0.01 | 84 | 1002.8 |
| 20260505112453 | 56 | 179 | 1.0 | 7.0 | 0.00 | 0.02 | 0.01 | 84 | 1002.3 |
| 20260505112334 | 56 | 342 | 1.0 | 7.0 | 0.00 | 0.02 | 0.01 | 84 | 1002.3 |
| 20260505112229 | 56 | 230 | 1.0 | 7.0 | 0.00 | 0.02 | 0.01 | 84 | 1002.3 |
| 20260505112203 | 56 | 261 | 2.0 | 7.0 | 0.00 | 0.02 | 0.01 | 84 | 1002.3 |
| 20260505112123 | 56 | 227 | 2.0 | 7.0 | 0.00 | 0.02 | 0.01 | 84 | 1002.3 |
| 20260505112017 | 56 | 93 | 1.0 | 7.0 | 0.00 | 0.02 | 0.01 | 84 | 1002.3 |
| 20260505111912 | 56 | 272 | 2.0 | 7.0 | 0.00 | 0.02 | 0.01 | 84 | 1002.3 |
| 20260505111819 | 56 | 243 | 2.0 | 6.0 | 0.00 | 0.02 | 0.01 | 84 | 1002.3 |
| 20260505111700 | 56 | 249 | 3.0 | 6.0 | 0.00 | 0.02 | 0.01 | 85 | 1002.3 |
| 20260505111555 | 56 | 284 | 3.0 | 6.0 | 0.00 | 0.02 | 0.01 | 85 | 1002.0 |
| 20260505111450 | 56 | 299 | 4.0 | 6.0 | 0.00 | 0.02 | 0.01 | 85 | 1002.0 |
| 20260505111343 | 56 | 172 | 3.0 | 6.0 | 0.00 | 0.02 | 0.01 | 85 | 1002.0 |
| 20260505111238 | 56 | 236 | 2.0 | 6.0 | 0.00 | 0.02 | 0.01 | 85 | 1002.0 |
| 20260505111149 | 56 | 229 | 1.0 | 6.0 | 0.00 | 0.02 | 0.01 | 85 | 1002.0 |
| 20260505111133 | 56 | 182 | 3.0 | 6.0 | 0.00 | 0.02 | 0.01 | 85 | 1002.0 |
| 20260505111026 | 56 | 219 | 2.0 | 6.0 | 0.00 | 0.02 | 0.01 | 85 | 1002.3 |
| 20260505110921 | 56 | 241 | 3.0 | 6.0 | 0.00 | 0.02 | 0.01 | 85 | 1002.0 |
| 20260505110815 | 56 | 159 | 1.0 | 6.0 | 0.00 | 0.02 | 0.01 | 85 | 1002.0 |
| 20260505110710 | 56 | 216 | 2.0 | 6.0 | 0.00 | 0.02 | 0.01 | 86 | 1002.3 |
| 20260505110643 | 56 | 228 | 1.0 | 6.0 | 0.00 | 0.02 | 0.01 | 86 | 1002.3 |
| 20260505110603 | 56 | 240 | 1.0 | 6.0 | 0.00 | 0.02 | 0.01 | 85 | 1002.3 |
| 20260505110457 | 56 | 240 | 4.0 | 6.0 | 0.00 | 0.02 | 0.01 | 85 | 1002.3 |
| 20260505110352 | 56 | 252 | 2.0 | 6.0 | 0.00 | 0.02 | 0.01 | 85 | 1002.0 |
| 20260505110247 | 56 | 294 | 0.0 | 6.0 | 0.00 | 0.02 | 0.01 | 85 | 1002.3 |
| 20260505110140 | 56 | 295 | 0.0 | 6.0 | 0.00 | 0.02 | 0.01 | 85 | 1002.0 |
| 20260505102215 | 56 | 223 | 4.0 | 8.0 | 0.00 | 0.02 | 0.01 | 85 | 1001.3 |
| 20260505102110 | 56 | 252 | 1.0 | 8.0 | 0.00 | 0.02 | 0.01 | 85 | 1001.0 |
| 20260505102043 | 56 | 169 | 0.0 | 8.0 | 0.00 | 0.02 | 0.01 | 85 | 1001.0 |
| 20260505102004 | 56 | 218 | 2.0 | 8.0 | 0.00 | 0.02 | 0.01 | 85 | 1001.3 |
| 20260505101858 | 56 | 261 | 3.0 | 8.0 | 0.00 | 0.02 | 0.01 | 85 | 1001.0 |
| 20260505101752 | 56 | 231 | 4.0 | 8.0 | 0.00 | 0.02 | 0.01 | 85 | 1001.0 |
| 20260505101647 | 56 | 232 | 5.0 | 8.0 | 0.00 | 0.02 | 0.01 | 85 | 1001.0 |
| 20260505101542 | 56 | 237 | 4.0 | 11.0 | 0.00 | 0.02 | 0.01 | 85 | 1001.0 |
| 20260505101437 | 56 | 197 | 2.0 | 11.0 | 0.00 | 0.02 | 0.01 | 85 | 1001.0 |
| 20260505101331 | 56 | 48 | 4.0 | 11.0 | 0.00 | 0.02 | 0.01 | 85 | 1001.0 |
| 20260505101224 | 56 | 211 | 2.0 | 11.0 | 0.00 | 0.02 | 0.01 | 85 | 1001.0 |
| 20260505101119 | 57 | 233 | 4.0 | 11.0 | 0.00 | 0.02 | 0.01 | 85 | 1001.0 |
| 20260505101031 | 57 | 198 | 4.0 | 11.0 | 0.00 | 0.02 | 0.01 | 84 | 1001.0 |
| 20260505101014 | 57 | 161 | 2.0 | 11.0 | 0.00 | 0.02 | 0.01 | 84 | 1001.0 |
| 20260505100908 | 57 | 197 | 2.0 | 11.0 | 0.00 | 0.02 | 0.01 | 84 | 1001.0 |
| 20260505100802 | 57 | 269 | 2.0 | 11.0 | 0.00 | 0.02 | 0.01 | 84 | 1001.0 |
| 20260505100656 | 57 | 211 | 7.0 | 11.0 | 0.00 | 0.02 | 0.01 | 84 | 1001.0 |
| 20260505100551 | 57 | 231 | 4.0 | 10.0 | 0.00 | 0.02 | 0.01 | 84 | 1001.0 |
| 20260505100524 | 57 | 186 | 3.0 | 10.0 | 0.00 | 0.02 | 0.01 | 84 | 1001.0 |
| 20260505100445 | 57 | 221 | 2.0 | 10.0 | 0.00 | 0.02 | 0.01 | 84 | 1001.0 |
| 20260505100340 | 57 | 212 | 5.0 | 10.0 | 0.00 | 0.02 | 0.01 | 84 | 1001.3 |
| 20260505100235 | 57 | 182 | 4.0 | 10.0 | 0.00 | 0.02 | 0.01 | 84 | 1001.3 |
| 20260505100128 | 57 | 173 | 3.0 | 10.0 | 0.00 | 0.02 | 0.01 | 84 | 1001.0 |
| 20260505100023 | 57 | 249 | 4.0 | 10.0 | 0.00 | 0.02 | 0.01 | 84 | 1001.3 |
| 20260505095918 | 57 | 224 | 3.0 | 9.0 | 0.00 | 0.02 | 0.01 | 84 | 1001.3 |
| 20260505095812 | 57 | 250 | 3.0 | 9.0 | 0.00 | 0.02 | 0.01 | 84 | 1001.0 |
| 20260505095707 | 57 | 204 | 3.0 | 9.0 | 0.00 | 0.02 | 0.01 | 84 | 1001.6 |
| 20260505095600 | 57 | 220 | 2.0 | 9.0 | 0.00 | 0.02 | 0.01 | 84 | 1001.0 |
| 20260505095512 | 57 | 254 | 6.0 | 11.0 | 0.00 | 0.02 | 0.01 | 84 | 1001.0 |
| 20260505095455 | 57 | 235 | 4.0 | 11.0 | 0.00 | 0.02 | 0.01 | 84 | 1001.0 |
| 20260505095349 | 57 | 235 | 4.0 | 11.0 | 0.00 | 0.02 | 0.01 | 84 | 1001.0 |
| 20260505095244 | 57 | 274 | 3.0 | 11.0 | 0.00 | 0.02 | 0.01 | 84 | 1001.0 |
| 20260505095138 | 57 | 234 | 4.0 | 11.0 | 0.00 | 0.02 | 0.01 | 84 | 1001.0 |
| 20260505095046 | 57 | 217 | 6.0 | 11.0 | 0.00 | 0.02 | 0.01 | 84 | 1001.0 |
| 20260505095006 | 57 | 216 | 6.0 | 11.0 | 0.00 | 0.02 | 0.01 | 84 | 1001.0 |
| 20260505094926 | 57 | 204 | 7.0 | 11.0 | 0.00 | 0.02 | 0.01 | 84 | 1001.0 |
| 20260505094821 | 57 | 234 | 3.0 | 11.0 | 0.00 | 0.02 | 0.01 | 84 | 1001.0 |
| 20260505094715 | 57 | 239 | 3.0 | 11.0 | 0.00 | 0.02 | 0.01 | 84 | 1001.0 |
| 20260505094610 | 57 | 230 | 3.0 | 11.0 | 0.00 | 0.02 | 0.01 | 84 | 1001.0 |
| 20260505094503 | 57 | 246 | 3.0 | 10.0 | 0.00 | 0.02 | 0.01 | 84 | 1001.0 |
| 20260505094358 | 57 | 201 | 4.0 | 10.0 | 0.00 | 0.02 | 0.01 | 84 | 1001.0 |
| 20260505094253 | 57 | 203 | 6.0 | 10.0 | 0.00 | 0.02 | 0.01 | 84 | 1001.0 |
| 20260505094147 | 57 | 209 | 4.0 | 10.0 | 0.00 | 0.02 | 0.01 | 84 | 1001.0 |
| 20260505094040 | 57 | 236 | 6.0 | 10.0 | 0.00 | 0.02 | 0.01 | 84 | 1001.0 |
| 20260505093951 | 57 | 253 | 2.0 | 10.0 | 0.00 | 0.02 | 0.01 | 84 | 1001.0 |
| 20260505093934 | 57 | 236 | 2.0 | 10.0 | 0.00 | 0.02 | 0.01 | 84 | 1001.0 |
| 20260505093829 | 57 | 277 | 5.0 | 10.0 | 0.00 | 0.02 | 0.01 | 84 | 1001.0 |
| 20260505093724 | 57 | 266 | 7.0 | 10.0 | 0.00 | 0.02 | 0.01 | 84 | 1001.0 |
| 20260505093618 | 57 | 155 | 4.0 | 10.0 | 0.00 | 0.02 | 0.01 | 84 | 1001.0 |
| 20260505093513 | 57 | 231 | 4.0 | 10.0 | 0.00 | 0.02 | 0.01 | 84 | 1001.0 |
| 20260505093445 | 57 | 227 | 4.0 | 10.0 | 0.00 | 0.02 | 0.01 | 84 | 1001.0 |
| 20260505093407 | 57 | 278 | 9.0 | 10.0 | 0.00 | 0.02 | 0.01 | 84 | 1001.0 |
| 20260505093301 | 57 | 228 | 3.0 | 9.0 | 0.00 | 0.02 | 0.01 | 84 | 1001.0 |
| 20260505093216 | 57 | 216 | 4.0 | 10.0 | 0.00 | 0.02 | 0.01 | 84 | 1001.0 |
| 20260505093206 | 57 | 238 | 3.0 | 10.0 | 0.00 | 0.02 | 0.01 | 84 | 1001.0 |
| 20260505093155 | 57 | 241 | 6.0 | 10.0 | 0.00 | 0.02 | 0.01 | 84 | 1001.0 |
| 20260505092838 | 57 | 226 | 4.0 | 10.0 | 0.00 | 0.02 | 0.01 | 84 | 1001.0 |
| 20260505092733 | 57 | 229 | 5.0 | 10.0 | 0.00 | 0.02 | 0.01 | 84 | 1001.0 |
| 20260505092707 | 58 | 202 | 6.0 | 10.0 | 0.00 | 0.02 | 0.01 | 83 | 1001.0 |
| 20260505092703 | 57 | 167 | 2.0 | 10.0 | 0.00 | 0.02 | 0.01 | 83 | 1001.0 |
| 20260505092654 | 58 | 234 | 4.0 | 10.0 | 0.00 | 0.02 | 0.01 | 83 | 1001.0 |
| 20260505092416 | 58 | 187 | 2.0 | 10.0 | 0.00 | 0.02 | 0.01 | 83 | 1001.0 |
| 20260505092310 | 58 | 213 | 9.0 | 10.0 | 0.00 | 0.02 | 0.01 | 83 | 1001.0 |
| 20260505092222 | 58 | 234 | 4.0 | 11.0 | 0.00 | 0.02 | 0.01 | 83 | 1001.0 |
| 20260505092218 | 58 | 226 | 5.0 | 11.0 | 0.00 | 0.02 | 0.01 | 83 | 1001.0 |
| 20260505092156 | 58 | 221 | 4.0 | 11.0 | 0.00 | 0.02 | 0.01 | 83 | 1001.0 |
| 20260505092147 | 58 | 260 | 5.0 | 11.0 | 0.00 | 0.02 | 0.01 | 83 | 1001.0 |
| 20260505091848 | 58 | 185 | 4.0 | 11.0 | 0.00 | 0.02 | 0.01 | 83 | 1001.0 |
| 20260505091743 | 58 | 249 | 5.0 | 11.0 | 0.00 | 0.02 | 0.01 | 83 | 1001.0 |
| 20260505091637 | 58 | 232 | 3.0 | 11.0 | 0.00 | 0.02 | 0.01 | 82 | 1001.0 |
| 20260505091531 | 58 | 126 | 3.0 | 11.0 | 0.00 | 0.02 | 0.01 | 82 | 1000.6 |
| 20260505091426 | 58 | 235 | 5.0 | 11.0 | 0.00 | 0.02 | 0.01 | 82 | 1001.0 |
| 20260505091320 | 58 | 215 | 6.0 | 11.0 | 0.00 | 0.02 | 0.01 | 82 | 1001.0 |
| 20260505091214 | 58 | 243 | 6.0 | 11.0 | 0.00 | 0.02 | 0.01 | 82 | 1000.6 |
| 20260505091109 | 58 | 243 | 8.0 | 11.0 | 0.00 | 0.02 | 0.01 | 82 | 1001.0 |
| 20260505091003 | 58 | 242 | 4.0 | 11.0 | 0.00 | 0.02 | 0.01 | 82 | 1000.6 |
| 20260505090914 | 58 | 212 | 3.0 | 11.0 | 0.00 | 0.02 | 0.01 | 82 | 1001.0 |
| 20260505090857 | 58 | 182 | 2.0 | 11.0 | 0.00 | 0.02 | 0.01 | 82 | 1001.0 |
| 20260505090752 | 58 | 251 | 4.0 | 11.0 | 0.00 | 0.02 | 0.01 | 82 | 1001.0 |
| 20260505090647 | 58 | 196 | 4.0 | 11.0 | 0.00 | 0.02 | 0.01 | 82 | 1001.0 |
| 20260505090541 | 58 | 220 | 5.0 | 13.0 | 0.00 | 0.02 | 0.01 | 81 | 1001.0 |
| 20260505090407 | 58 | 200 | 2.0 | 13.0 | 0.00 | 0.02 | 0.01 | 81 | 1001.0 |
| 20260505090328 | 58 | 231 | 5.0 | 13.0 | 0.00 | 0.02 | 0.01 | 81 | 1001.0 |
| 20260505090222 | 58 | 215 | 5.0 | 13.0 | 0.00 | 0.02 | 0.01 | 81 | 1000.6 |
| 20260505090116 | 58 | 220 | 6.0 | 13.0 | 0.00 | 0.02 | 0.01 | 81 | 1001.0 |
| 20260505090011 | 58 | 159 | 3.0 | 13.0 | 0.00 | 0.02 | 0.01 | 81 | 1001.0 |
| 20260505085905 | 58 | 221 | 2.0 | 13.0 | 0.00 | 0.02 | 0.01 | 81 | 1000.6 |
| 20260505085800 | 58 | 196 | 6.0 | 13.0 | 0.00 | 0.02 | 0.01 | 81 | 1001.0 |
| 20260505085654 | 58 | 223 | 6.0 | 13.0 | 0.00 | 0.02 | 0.01 | 80 | 1000.6 |
| 20260505085549 | 58 | 193 | 7.0 | 11.0 | 0.00 | 0.02 | 0.01 | 80 | 1000.6 |
| 20260505085443 | 58 | 228 | 3.0 | 11.0 | 0.00 | 0.02 | 0.01 | 80 | 1000.6 |
| 20260505085354 | 58 | 245 | 6.0 | 11.0 | 0.00 | 0.02 | 0.01 | 80 | 1001.0 |
| 20260505085338 | 58 | 262 | 5.0 | 11.0 | 0.00 | 0.02 | 0.01 | 80 | 1001.0 |
| 20260505085231 | 59 | 253 | 4.0 | 11.0 | 0.00 | 0.02 | 0.01 | 80 | 1001.0 |
| 20260505085126 | 59 | 227 | 5.0 | 11.0 | 0.00 | 0.02 | 0.01 | 80 | 1001.0 |
| 20260505085020 | 59 | 234 | 6.0 | 11.0 | 0.00 | 0.02 | 0.01 | 80 | 1000.6 |
| 20260505084915 | 59 | 226 | 1.0 | 10.0 | 0.00 | 0.02 | 0.01 | 80 | 1000.3 |
| 20260505084848 | 59 | 187 | 4.0 | 10.0 | 0.00 | 0.02 | 0.01 | 80 | 1000.3 |
| 20260505084809 | 59 | 252 | 6.0 | 10.0 | 0.00 | 0.02 | 0.01 | 80 | 1000.6 |
| 20260505084704 | 59 | 200 | 4.0 | 10.0 | 0.00 | 0.02 | 0.01 | 79 | 1000.3 |
| 20260505084558 | 59 | 249 | 8.0 | 10.0 | 0.00 | 0.02 | 0.01 | 79 | 1000.6 |
| 20260505084453 | 59 | 196 | 4.0 | 9.0 | 0.00 | 0.02 | 0.01 | 79 | 1000.3 |
| 20260505084347 | 59 | 248 | 4.0 | 9.0 | 0.00 | 0.02 | 0.01 | 79 | 1000.6 |
| 20260505084241 | 59 | 232 | 4.0 | 9.0 | 0.00 | 0.02 | 0.01 | 79 | 1000.6 |
| 20260505084135 | 59 | 232 | 5.0 | 9.0 | 0.00 | 0.02 | 0.01 | 79 | 1000.6 |
| 20260505084030 | 59 | 227 | 5.0 | 8.0 | 0.00 | 0.02 | 0.01 | 79 | 1000.6 |
| 20260505083924 | 59 | 302 | 4.0 | 8.0 | 0.00 | 0.02 | 0.01 | 79 | 1000.6 |
| 20260505083836 | 59 | 264 | 3.0 | 10.0 | 0.00 | 0.02 | 0.01 | 79 | 1000.6 |
| 20260505083819 | 59 | 114 | 1.0 | 10.0 | 0.00 | 0.02 | 0.01 | 78 | 1000.3 |
| 20260505083713 | 59 | 238 | 4.0 | 10.0 | 0.00 | 0.02 | 0.01 | 78 | 1000.6 |
| 20260505083607 | 59 | 182 | 5.0 | 10.0 | 0.00 | 0.02 | 0.01 | 78 | 1000.6 |
| 20260505083503 | 59 | 226 | 5.0 | 10.0 | 0.00 | 0.02 | 0.01 | 78 | 1000.6 |
| 20260505083357 | 60 | 221 | 5.0 | 11.0 | 0.00 | 0.02 | 0.01 | 77 | 1000.6 |
| 20260505083329 | 60 | 225 | 7.0 | 11.0 | 0.00 | 0.02 | 0.01 | 77 | 1000.3 |
| 20260505083251 | 60 | 238 | 5.0 | 11.0 | 0.00 | 0.02 | 0.01 | 77 | 1000.3 |
| 20260505083145 | 60 | 224 | 7.0 | 11.0 | 0.00 | 0.02 | 0.01 | 77 | 1000.3 |
| 20260505083040 | 60 | 241 | 4.0 | 11.0 | 0.00 | 0.02 | 0.01 | 77 | 1000.6 |
| 20260505082934 | 60 | 231 | 7.0 | 11.0 | 0.00 | 0.02 | 0.01 | 77 | 1000.3 |
| 20260505082828 | 60 | 221 | 2.0 | 11.0 | 0.00 | 0.02 | 0.01 | 77 | 1000.3 |
| 20260505082723 | 60 | 229 | 5.0 | 11.0 | 0.00 | 0.02 | 0.01 | 77 | 1000.3 |
| 20260505082618 | 60 | 260 | 6.0 | 11.0 | 0.00 | 0.02 | 0.01 | 76 | 1000.6 |
| 20260505082511 | 60 | 233 | 6.0 | 11.0 | 0.00 | 0.02 | 0.01 | 76 | 1000.6 |
| 20260505082406 | 60 | 244 | 7.0 | 11.0 | 0.00 | 0.02 | 0.01 | 76 | 1000.6 |
| 20260505082318 | 60 | 208 | 9.0 | 11.0 | 0.00 | 0.02 | 0.01 | 76 | 1000.3 |
| 20260505082300 | 60 | 250 | 4.0 | 11.0 | 0.00 | 0.02 | 0.01 | 76 | 1000.3 |
| 20260505082154 | 60 | 245 | 6.0 | 11.0 | 0.00 | 0.02 | 0.01 | 75 | 1000.3 |
| 20260505082047 | 60 | 194 | 8.0 | 11.0 | 0.00 | 0.02 | 0.01 | 75 | 1000.3 |
| 20260505081942 | 60 | 201 | 6.0 | 10.0 | 0.00 | 0.02 | 0.01 | 75 | 1000.6 |
| 20260505081837 | 60 | 239 | 4.0 | 10.0 | 0.00 | 0.02 | 0.01 | 75 | 1000.3 |
| 20260505081810 | 60 | 235 | 5.0 | 10.0 | 0.00 | 0.02 | 0.01 | 75 | 1000.3 |
| 20260505081731 | 60 | 103 | 7.0 | 10.0 | 0.00 | 0.02 | 0.01 | 75 | 1000.3 |
| 20260505081625 | 60 | 214 | 5.0 | 9.0 | 0.00 | 0.02 | 0.01 | 75 | 1000.3 |
| 20260505081520 | 60 | 251 | 3.0 | 9.0 | 0.00 | 0.02 | 0.01 | 75 | 1000.3 |
| 20260505081415 | 60 | 202 | 6.0 | 9.0 | 0.00 | 0.02 | 0.01 | 74 | 1000.6 |
| 20260505081308 | 60 | 250 | 5.0 | 8.0 | 0.00 | 0.02 | 0.01 | 75 | 1000.3 |
| 20260505081203 | 61 | 232 | 4.0 | 15.0 | 0.00 | 0.02 | 0.01 | 74 | 1000.3 |
| 20260505081057 | 61 | 241 | 5.0 | 15.0 | 0.00 | 0.02 | 0.01 | 74 | 1000.3 |
| 20260505080953 | 61 | 240 | 5.0 | 15.0 | 0.00 | 0.02 | 0.01 | 74 | 1000.3 |
| 20260505080846 | 61 | 192 | 4.0 | 15.0 | 0.00 | 0.02 | 0.01 | 74 | 1000.3 |
| 20260505080740 | 61 | 227 | 6.0 | 15.0 | 0.00 | 0.02 | 0.01 | 74 | 1000.3 |
| 20260505080635 | 61 | 260 | 4.0 | 15.0 | 0.00 | 0.02 | 0.01 | 74 | 1000.0 |
| 20260505080528 | 61 | 227 | 7.0 | 15.0 | 0.00 | 0.02 | 0.01 | 73 | 1000.0 |
| 20260505080424 | 61 | 239 | 5.0 | 15.0 | 0.00 | 0.02 | 0.01 | 74 | 1000.0 |
| 20260505080317 | 61 | 309 | 6.0 | 15.0 | 0.00 | 0.02 | 0.01 | 73 | 1000.3 |
| 20260505080250 | 61 | 191 | 10.0 | 15.0 | 0.00 | 0.02 | 0.01 | 74 | 1000.3 |
| 20260505080213 | 61 | 226 | 6.0 | 15.0 | 0.00 | 0.02 | 0.01 | 73 | 1000.3 |
| 20260505080111 | 61 | 279 | 6.0 | 15.0 | 0.00 | 0.02 | 0.01 | 73 | 1000.3 |
| 20260505080001 | 61 | 232 | 4.0 | 10.0 | 0.00 | 0.02 | 0.01 | 74 | 1000.3 |
| 20260505075856 | 61 | 292 | 4.0 | 10.0 | 0.00 | 0.02 | 0.01 | 74 | 1000.0 |
| 20260505075749 | 61 | 234 | 6.0 | 9.0 | 0.00 | 0.02 | 0.01 | 73 | 1000.3 |
| 20260505075644 | 61 | 255 | 5.0 | 9.0 | 0.00 | 0.02 | 0.01 | 74 | 1000.3 |
| 20260505075538 | 61 | 238 | 4.0 | 10.0 | 0.00 | 0.02 | 0.01 | 74 | 1000.0 |
| 20260505075432 | 61 | 212 | 6.0 | 10.0 | 0.00 | 0.02 | 0.01 | 74 | 1000.3 |
| 20260505075326 | 61 | 252 | 4.0 | 14.0 | 0.00 | 0.02 | 0.01 | 74 | 1000.0 |
| 20260505075238 | 61 | 196 | 2.0 | 14.0 | 0.00 | 0.02 | 0.01 | 74 | 1000.0 |
| 20260505075221 | 61 | 227 | 3.0 | 14.0 | 0.00 | 0.02 | 0.01 | 74 | 1000.0 |
| 20260505075115 | 61 | 223 | 4.0 | 14.0 | 0.00 | 0.02 | 0.01 | 74 | 1000.0 |
| 20260505075010 | 61 | 221 | 3.0 | 14.0 | 0.00 | 0.02 | 0.01 | 73 | 1000.0 |
| 20260505074904 | 61 | 238 | 3.0 | 14.0 | 0.00 | 0.02 | 0.01 | 73 | 1000.0 |
| 20260505074759 | 61 | 232 | 4.0 | 14.0 | 0.00 | 0.02 | 0.01 | 73 | 1000.0 |
| 20260505074732 | 61 | 230 | 5.0 | 14.0 | 0.00 | 0.02 | 0.01 | 73 | 999.6 |
| 20260505074652 | 61 | 235 | 6.0 | 14.0 | 0.00 | 0.02 | 0.01 | 73 | 999.6 |
| 20260505074548 | 61 | 236 | 6.0 | 14.0 | 0.00 | 0.02 | 0.01 | 73 | 1000.0 |
| 20260505074441 | 61 | 299 | 6.0 | 14.0 | 0.00 | 0.02 | 0.01 | 73 | 999.6 |
| 20260505074336 | 61 | 203 | 3.0 | 9.0 | 0.00 | 0.02 | 0.01 | 74 | 999.3 |
| 20260505074230 | 61 | 288 | 4.0 | 9.0 | 0.00 | 0.02 | 0.01 | 74 | 999.6 |
| 20260505074125 | 60 | 207 | 3.0 | 9.0 | 0.00 | 0.02 | 0.01 | 74 | 999.6 |
| 20260505074019 | 60 | 269 | 4.0 | 11.0 | 0.00 | 0.02 | 0.01 | 74 | 999.6 |
| 20260505073914 | 60 | 227 | 3.0 | 11.0 | 0.00 | 0.02 | 0.01 | 74 | 999.6 |
| 20260505073808 | 60 | 229 | 5.0 | 11.0 | 0.00 | 0.02 | 0.01 | 75 | 1000.0 |
| 20260505073719 | 60 | 237 | 5.0 | 11.0 | 0.00 | 0.02 | 0.01 | 75 | 999.6 |
| 20260505073702 | 60 | 230 | 3.0 | 11.0 | 0.00 | 0.02 | 0.01 | 75 | 999.6 |
| 20260505073556 | 60 | 265 | 3.0 | 11.0 | 0.00 | 0.02 | 0.01 | 76 | 999.6 |
| 20260505073450 | 60 | 223 | 2.0 | 11.0 | 0.00 | 0.02 | 0.01 | 76 | 999.3 |
| 20260505073344 | 60 | 228 | 4.0 | 11.0 | 0.00 | 0.02 | 0.01 | 75 | 999.3 |
| 20260505073239 | 60 | 253 | 4.0 | 11.0 | 0.00 | 0.02 | 0.01 | 75 | 999.3 |
| 20260505073212 | 60 | 234 | 4.0 | 11.0 | 0.00 | 0.02 | 0.01 | 75 | 999.3 |
| 20260505073134 | 60 | 236 | 7.0 | 11.0 | 0.00 | 0.02 | 0.01 | 75 | 999.6 |
| 20260505073028 | 60 | 244 | 2.0 | 7.0 | 0.00 | 0.02 | 0.01 | 76 | 999.3 |
| 20260505072923 | 60 | 240 | 6.0 | 7.0 | 0.00 | 0.02 | 0.01 | 76 | 999.3 |
| 20260505072817 | 60 | 201 | 4.0 | 8.0 | 0.00 | 0.02 | 0.01 | 76 | 999.6 |
| 20260505072711 | 60 | 200 | 4.0 | 8.0 | 0.00 | 0.02 | 0.01 | 76 | 999.3 |
| 20260505072606 | 60 | 224 | 3.0 | 8.0 | 0.00 | 0.02 | 0.01 | 76 | 999.3 |
| 20260505072500 | 60 | 221 | 3.0 | 8.0 | 0.00 | 0.02 | 0.01 | 76 | 999.3 |
| 20260505072354 | 60 | 224 | 5.0 | 8.0 | 0.00 | 0.02 | 0.01 | 76 | 999.3 |
| 20260505072248 | 60 | 218 | 4.0 | 8.0 | 0.00 | 0.02 | 0.01 | 76 | 999.3 |
| 20260505072200 | 60 | 231 | 3.0 | 8.0 | 0.00 | 0.02 | 0.01 | 76 | 999.3 |
| 20260505072142 | 60 | 204 | 2.0 | 8.0 | 0.00 | 0.02 | 0.01 | 76 | 999.3 |
| 20260505072038 | 60 | 249 | 3.0 | 8.0 | 0.00 | 0.02 | 0.01 | 77 | 999.6 |
| 20260505071932 | 60 | 207 | 5.0 | 8.0 | 0.00 | 0.02 | 0.01 | 76 | 999.3 |
| 20260505071827 | 60 | 240 | 4.0 | 7.0 | 0.00 | 0.02 | 0.01 | 77 | 999.3 |
| 20260505071720 | 60 | 210 | 2.0 | 7.0 | 0.00 | 0.02 | 0.01 | 77 | 999.3 |
| 20260505071654 | 60 | 320 | 1.0 | 7.0 | 0.00 | 0.02 | 0.01 | 77 | 999.3 |
| 20260505071614 | 60 | 192 | 2.0 | 7.0 | 0.00 | 0.02 | 0.01 | 77 | 999.3 |
| 20260505071509 | 60 | 181 | 3.0 | 7.0 | 0.00 | 0.02 | 0.01 | 76 | 999.3 |
| 20260505071404 | 60 | 217 | 5.0 | 7.0 | 0.00 | 0.02 | 0.01 | 76 | 999.3 |
| 20260505071258 | 60 | 284 | 4.0 | 6.0 | 0.00 | 0.02 | 0.01 | 77 | 999.6 |
| 20260505071151 | 60 | 222 | 4.0 | 6.0 | 0.00 | 0.02 | 0.01 | 77 | 999.3 |
| 20260505071051 | 60 | 233 | 2.0 | 4.0 | 0.00 | 0.02 | 0.01 | 77 | 999.6 |
| 20260505070940 | 60 | 250 | 3.0 | 4.0 | 0.00 | 0.02 | 0.01 | 77 | 999.3 |
| 20260505070836 | 60 | 203 | 2.0 | 8.0 | 0.00 | 0.02 | 0.01 | 78 | 999.6 |
| 20260505070729 | 60 | 210 | 0.0 | 8.0 | 0.00 | 0.02 | 0.01 | 77 | 999.3 |
| 20260505070640 | 60 | 222 | 3.0 | 8.0 | 0.00 | 0.02 | 0.01 | 77 | 999.3 |
| 20260505070624 | 60 | 178 | 2.0 | 8.0 | 0.00 | 0.02 | 0.01 | 77 | 999.6 |
| 20260505070519 | 60 | 210 | 1.0 | 8.0 | 0.00 | 0.02 | 0.01 | 77 | 999.6 |
| 20260505070412 | 60 | 240 | 2.0 | 8.0 | 0.00 | 0.02 | 0.01 | 77 | 999.6 |
| 20260505070201 | 60 | 223 | 2.0 | 8.0 | 0.00 | 0.02 | 0.01 | 77 | 999.6 |
| 20260505070134 | 60 | 234 | 2.0 | 8.0 | 0.00 | 0.02 | 0.01 | 76 | 999.6 |
| 20260505070105 | 60 | 268 | 3.0 | 8.0 | 0.00 | 0.02 | 0.01 | 76 | 999.6 |
| 20260505065930 | 60 | 210 | 6.0 | 8.0 | 0.00 | 0.02 | 0.01 | 76 | 999.6 |
| 20260505065825 | 60 | 37 | 1.0 | 7.0 | 0.00 | 0.02 | 0.01 | 76 | 1000.0 |
| 20260505065719 | 60 | 252 | 4.0 | 7.0 | 0.00 | 0.02 | 0.01 | 76 | 999.6 |
| 20260505065630 | 60 | 251 | 4.0 | 7.0 | 0.00 | 0.02 | 0.01 | 76 | 999.6 |
| 20260505065613 | 60 | 226 | 4.0 | 7.0 | 0.00 | 0.02 | 0.01 | 76 | 999.6 |
| 20260505065507 | 60 | 204 | 3.0 | 7.0 | 0.00 | 0.02 | 0.01 | 77 | 999.6 |
| 20260505065402 | 60 | 223 | 4.0 | 7.0 | 0.00 | 0.02 | 0.01 | 77 | 999.6 |
| 20260505065257 | 60 | 241 | 2.0 | 7.0 | 0.00 | 0.02 | 0.01 | 77 | 999.6 |
| 20260505065150 | 60 | 207 | 2.0 | 8.0 | 0.00 | 0.02 | 0.01 | 78 | 999.6 |
| 20260505065124 | 60 | 260 | 3.0 | 8.0 | 0.00 | 0.02 | 0.01 | 78 | 999.6 |
| 20260505064939 | 60 | 236 | 2.0 | 8.0 | 0.00 | 0.02 | 0.01 | 77 | 999.3 |
| 20260505064833 | 60 | 193 | 5.0 | 8.0 | 0.00 | 0.02 | 0.01 | 78 | 999.6 |
| 20260505064728 | 60 | 232 | 5.0 | 9.0 | 0.00 | 0.02 | 0.01 | 77 | 999.3 |
| 20260505064623 | 60 | 195 | 4.0 | 9.0 | 0.00 | 0.02 | 0.01 | 77 | 999.6 |
| 20260505064517 | 60 | 205 | 3.0 | 9.0 | 0.00 | 0.02 | 0.01 | 77 | 1000.0 |
| 20260505064410 | 60 | 198 | 3.0 | 9.0 | 0.00 | 0.02 | 0.01 | 77 | 1000.0 |
| 20260505064305 | 60 | 222 | 5.0 | 9.0 | 0.00 | 0.02 | 0.01 | 77 | 1000.0 |
| 20260505064159 | 60 | 238 | 4.0 | 9.0 | 0.00 | 0.02 | 0.01 | 77 | 1000.0 |
| 20260505064111 | 60 | 220 | 6.0 | 9.0 | 0.00 | 0.02 | 0.01 | 77 | 999.6 |
| 20260505064055 | 60 | 231 | 4.0 | 9.0 | 0.00 | 0.02 | 0.01 | 77 | 999.6 |
| 20260505063948 | 60 | 226 | 3.0 | 9.0 | 0.00 | 0.02 | 0.01 | 77 | 1000.0 |
| 20260505063842 | 60 | 228 | 5.0 | 9.0 | 0.00 | 0.02 | 0.01 | 77 | 1000.0 |
| 20260505063737 | 60 | 255 | 4.0 | 10.0 | 0.00 | 0.02 | 0.01 | 77 | 1000.0 |
| 20260505063631 | 60 | 208 | 4.0 | 10.0 | 0.00 | 0.02 | 0.01 | 77 | 999.6 |
| 20260505063605 | 60 | 162 | 3.0 | 10.0 | 0.00 | 0.02 | 0.01 | 77 | 999.6 |
| 20260505063527 | 60 | 193 | 4.0 | 10.0 | 0.00 | 0.02 | 0.01 | 77 | 1000.0 |
| 20260505063420 | 60 | 251 | 3.0 | 10.0 | 0.00 | 0.02 | 0.01 | 77 | 1000.0 |
| 20260505063315 | 60 | 245 | 4.0 | 10.0 | 0.00 | 0.02 | 0.01 | 77 | 999.6 |
| 20260505063209 | 60 | 203 | 4.0 | 10.0 | 0.00 | 0.02 | 0.01 | 77 | 1000.0 |
| 20260505063104 | 60 | 204 | 5.0 | 10.0 | 0.00 | 0.02 | 0.01 | 77 | 1000.0 |
| 20260505062959 | 60 | 257 | 5.0 | 10.0 | 0.00 | 0.02 | 0.01 | 77 | 1000.0 |
| 20260505062852 | 60 | 186 | 7.0 | 10.0 | 0.00 | 0.02 | 0.01 | 77 | 1000.3 |
| 20260505062747 | 60 | 223 | 2.0 | 9.0 | 0.00 | 0.02 | 0.01 | 77 | 1000.0 |
| 20260505062641 | 60 | 222 | 5.0 | 8.0 | 0.00 | 0.02 | 0.01 | 77 | 1000.0 |
| 20260505062551 | 60 | 232 | 2.0 | 8.0 | 0.00 | 0.02 | 0.01 | 77 | 1000.0 |
| 20260505062535 | 60 | 239 | 3.0 | 8.0 | 0.00 | 0.02 | 0.01 | 77 | 1000.0 |
| 20260505062428 | 60 | 193 | 2.0 | 8.0 | 0.00 | 0.02 | 0.01 | 77 | 1000.0 |
| 20260505062323 | 60 | 180 | 6.0 | 8.0 | 0.00 | 0.02 | 0.01 | 78 | 1000.0 |
| 20260505062216 | 60 | 227 | 4.0 | 8.0 | 0.00 | 0.02 | 0.01 | 78 | 1000.0 |
| 20260505062112 | 60 | 269 | 3.0 | 8.0 | 0.00 | 0.02 | 0.01 | 78 | 1000.3 |
| 20260505062045 | 60 | 203 | 4.0 | 8.0 | 0.00 | 0.02 | 0.01 | 77 | 1000.3 |
| 20260505062005 | 60 | 251 | 3.0 | 8.0 | 0.01 | 0.02 | 0.01 | 78 | 1000.0 |
| 20260505061900 | 60 | 223 | 4.0 | 8.0 | 0.01 | 0.02 | 0.01 | 78 | 1000.0 |
| 20260505061755 | 60 | 275 | 2.0 | 8.0 | 0.01 | 0.02 | 0.01 | 77 | 1000.0 |
| 20260505061649 | 60 | 197 | 4.0 | 8.0 | 0.01 | 0.02 | 0.01 | 77 | 1000.0 |
| 20260505061543 | 60 | 246 | 5.0 | 8.0 | 0.01 | 0.02 | 0.01 | 77 | 1000.0 |
| 20260505061437 | 60 | 237 | 6.0 | 8.0 | 0.01 | 0.02 | 0.01 | 77 | 1000.0 |
| 20260505061331 | 60 | 210 | 4.0 | 8.0 | 0.01 | 0.02 | 0.01 | 78 | 1000.0 |
| 20260505061225 | 60 | 170 | 2.0 | 7.0 | 0.01 | 0.02 | 0.01 | 78 | 1000.0 |
| 20260505061120 | 60 | 227 | 3.0 | 7.0 | 0.01 | 0.02 | 0.01 | 78 | 1000.0 |
| 20260505061031 | 60 | 248 | 2.0 | 7.0 | 0.01 | 0.02 | 0.01 | 78 | 1000.0 |
| 20260505061014 | 60 | 210 | 3.0 | 7.0 | 0.01 | 0.02 | 0.01 | 78 | 1000.0 |
| 20260505060910 | 60 | 213 | 2.0 | 7.0 | 0.01 | 0.02 | 0.01 | 78 | 1000.0 |
| 20260505060803 | 60 | 214 | 4.0 | 7.0 | 0.01 | 0.02 | 0.01 | 78 | 1000.0 |
| 20260505060657 | 60 | 231 | 4.0 | 7.0 | 0.01 | 0.02 | 0.01 | 78 | 1000.0 |
| 20260505060552 | 59 | 250 | 5.0 | 7.0 | 0.01 | 0.02 | 0.01 | 78 | 1000.0 |
| 20260505060525 | 59 | 199 | 5.0 | 7.0 | 0.01 | 0.02 | 0.01 | 79 | 999.6 |
| 20260505060446 | 59 | 230 | 3.0 | 7.0 | 0.01 | 0.02 | 0.01 | 78 | 999.6 |
| 20260505060342 | 59 | 203 | 3.0 | 6.0 | 0.01 | 0.02 | 0.01 | 79 | 1000.0 |
| 20260505060235 | 59 | 212 | 3.0 | 8.0 | 0.01 | 0.02 | 0.01 | 79 | 1000.0 |
| 20260505060129 | 59 | 256 | 3.0 | 8.0 | 0.01 | 0.02 | 0.01 | 80 | 1000.0 |
| 20260505060024 | 59 | 209 | 3.0 | 8.0 | 0.01 | 0.02 | 0.01 | 80 | 1000.0 |
| 20260505055918 | 59 | 221 | 3.0 | 8.0 | 0.01 | 0.02 | 0.01 | 81 | 1000.0 |
| 20260505055813 | 59 | 293 | 3.0 | 8.0 | 0.01 | 0.02 | 0.01 | 81 | 1000.0 |
| 20260505055707 | 59 | 229 | 3.0 | 8.0 | 0.01 | 0.02 | 0.01 | 81 | 1000.0 |
| 20260505055604 | 59 | 254 | 3.0 | 8.0 | 0.01 | 0.02 | 0.01 | 81 | 999.6 |
| 20260505055513 | 58 | 217 | 4.0 | 8.0 | 0.01 | 0.02 | 0.01 | 81 | 999.6 |
| 20260505055456 | 58 | 219 | 5.0 | 8.0 | 0.01 | 0.02 | 0.01 | 81 | 999.6 |
| 20260505055350 | 58 | 205 | 4.0 | 8.0 | 0.01 | 0.02 | 0.01 | 82 | 1000.0 |
| 20260505055244 | 58 | 196 | 2.0 | 8.0 | 0.01 | 0.02 | 0.01 | 83 | 1000.0 |
| 20260505055139 | 58 | 215 | 4.0 | 8.0 | 0.01 | 0.02 | 0.01 | 84 | 1000.0 |
| 20260505055034 | 58 | 205 | 2.0 | 8.0 | 0.01 | 0.02 | 0.01 | 83 | 1000.0 |
| 20260505055007 | 58 | 250 | 2.0 | 8.0 | 0.01 | 0.02 | 0.01 | 83 | 1000.0 |
| 20260505054928 | 58 | 185 | 1.0 | 8.0 | 0.01 | 0.02 | 0.01 | 83 | 1000.0 |
| 20260505054822 | 58 | 159 | 1.0 | 8.0 | 0.01 | 0.02 | 0.01 | 83 | 1000.0 |
| 20260505054716 | 58 | 183 | 4.0 | 8.0 | 0.01 | 0.02 | 0.01 | 84 | 1000.3 |
| 20260505054611 | 58 | 218 | 4.0 | 8.0 | 0.01 | 0.02 | 0.01 | 84 | 1000.0 |
| 20260505054505 | 58 | 218 | 2.0 | 8.0 | 0.01 | 0.02 | 0.01 | 83 | 1000.3 |
| 20260505054400 | 58 | 177 | 4.0 | 8.0 | 0.01 | 0.02 | 0.01 | 84 | 1000.0 |
| 20260505054252 | 58 | 229 | 3.0 | 8.0 | 0.01 | 0.02 | 0.01 | 85 | 1000.0 |
| 20260505054146 | 58 | 198 | 2.0 | 7.0 | 0.01 | 0.02 | 0.01 | 85 | 1000.0 |
| 20260505054040 | 58 | 229 | 4.0 | 7.0 | 0.01 | 0.02 | 0.01 | 85 | 1000.0 |
| 20260505053935 | 58 | 214 | 3.0 | 7.0 | 0.01 | 0.02 | 0.01 | 84 | 1000.0 |
| 20260505053829 | 58 | 229 | 4.0 | 7.0 | 0.01 | 0.02 | 0.01 | 84 | 1000.0 |
| 20260505053724 | 58 | 236 | 3.0 | 6.0 | 0.01 | 0.02 | 0.01 | 84 | 1000.0 |
| 20260505053618 | 58 | 260 | 1.0 | 8.0 | 0.01 | 0.02 | 0.01 | 84 | 1000.0 |
| 20260505053513 | 58 | 235 | 2.0 | 9.0 | 0.01 | 0.02 | 0.01 | 84 | 1000.0 |
| 20260505053446 | 58 | 230 | 2.0 | 9.0 | 0.01 | 0.02 | 0.01 | 84 | 1000.0 |
| 20260505053408 | 58 | 243 | 2.0 | 9.0 | 0.01 | 0.02 | 0.01 | 84 | 999.6 |
| 20260505053301 | 58 | 275 | 2.0 | 11.0 | 0.01 | 0.02 | 0.01 | 84 | 1000.0 |
| 20260505053156 | 58 | 264 | 4.0 | 13.0 | 0.01 | 0.02 | 0.01 | 84 | 1000.0 |
| 20260505053050 | 58 | 268 | 3.0 | 13.0 | 0.01 | 0.02 | 0.01 | 85 | 999.6 |
| 20260505052945 | 58 | 205 | 3.0 | 13.0 | 0.01 | 0.02 | 0.01 | 84 | 999.6 |
| 20260505052839 | 59 | 226 | 1.0 | 15.0 | 0.01 | 0.02 | 0.01 | 84 | 1000.0 |
| 20260505052733 | 59 | 147 | 5.0 | 15.0 | 0.01 | 0.02 | 0.01 | 84 | 999.6 |
| 20260505052628 | 59 | 189 | 4.0 | 15.0 | 0.01 | 0.02 | 0.01 | 84 | 1000.0 |
| 20260505052523 | 59 | 227 | 6.0 | 21.0 | 0.01 | 0.02 | 0.01 | 84 | 999.6 |
| 20260505052433 | 59 | 176 | 5.0 | 21.0 | 0.01 | 0.02 | 0.01 | 84 | 999.3 |
| 20260505052417 | 59 | 135 | 2.0 | 21.0 | 0.01 | 0.02 | 0.01 | 83 | 999.3 |
| 20260505052311 | 59 | 213 | 9.0 | 21.0 | 0.01 | 0.02 | 0.01 | 83 | 999.6 |
| 20260505052205 | 59 | 203 | 8.0 | 21.0 | 0.01 | 0.02 | 0.01 | 83 | 999.3 |
| 20260505052100 | 59 | 172 | 7.0 | 21.0 | 0.01 | 0.02 | 0.01 | 83 | 999.3 |
| 20260505051954 | 59 | 201 | 10.0 | 23.0 | 0.00 | 0.01 | 0.01 | 84 | 999.3 |
| 20260505051927 | 59 | 198 | 12.0 | 23.0 | 0.00 | 0.01 | 0.00 | 82 | 999.3 |
| 20260505051848 | 59 | 171 | 7.0 | 23.0 | 0.00 | 0.01 | 0.00 | 82 | 999.3 |
| 20260505051743 | 60 | 181 | 10.0 | 25.0 | 0.00 | 0.01 | 0.00 | 82 | 999.3 |
| 20260505051637 | 60 | 249 | 10.0 | 25.0 | 0.00 | 0.01 | 0.00 | 81 | 999.6 |
| 20260505051532 | 60 | 209 | 10.0 | 25.0 | 0.00 | 0.01 | 0.00 | 81 | 999.6 |
| 20260505051426 | 60 | 200 | 7.0 | 25.0 | 0.00 | 0.01 | 0.00 | 80 | 1000.0 |
| 20260505051320 | 60 | 182 | 7.0 | 25.0 | 0.00 | 0.01 | 0.00 | 80 | 1000.0 |
| 20260505051215 | 60 | 169 | 10.0 | 25.0 | 0.00 | 0.01 | 0.00 | 80 | 1000.0 |
| 20260505051112 | 60 | 243 | 6.0 | 25.0 | 0.00 | 0.01 | 0.00 | 80 | 1000.3 |
| 20260505051004 | 61 | 187 | 19.0 | 25.0 | 0.00 | 0.01 | 0.00 | 79 | 1000.0 |
| 20260505050915 | 61 | 228 | 14.0 | 25.0 | 0.00 | 0.01 | 0.00 | 78 | 1000.3 |
| 20260505050857 | 61 | 237 | 9.0 | 25.0 | 0.00 | 0.01 | 0.00 | 78 | 1000.3 |
| 20260505050752 | 61 | 182 | 11.0 | 25.0 | 0.00 | 0.01 | 0.00 | 77 | 1000.0 |
| 20260505050645 | 62 | 258 | 13.0 | 25.0 | 0.00 | 0.01 | 0.00 | 76 | 1000.0 |
| 20260505050541 | 62 | 209 | 8.0 | 25.0 | 0.00 | 0.01 | 0.00 | 75 | 1000.0 |
| 20260505050447 | 63 | 197 | 9.0 | 25.0 | 0.00 | 0.01 | 0.00 | 75 | 1000.3 |
| 20260505050408 | 63 | 204 | 5.0 | 25.0 | 0.00 | 0.01 | 0.00 | 75 | 1000.3 |
| 20260505050329 | 63 | 234 | 13.0 | 25.0 | 0.00 | 0.01 | 0.00 | 73 | 1000.3 |
| 20260505050223 | 64 | 174 | 14.0 | 25.0 | 0.00 | 0.01 | 0.00 | 73 | 1000.3 |
| 20260505050118 | 64 | 229 | 12.0 | 19.0 | 0.00 | 0.01 | 0.00 | 72 | 1000.3 |
| 20260505041731 | 64 | 230 | 5.0 | 14.0 | 0.00 | 0.01 | 0.00 | 73 | 1000.0 |
| 20260505041625 | 64 | 229 | 5.0 | 14.0 | 0.00 | 0.01 | 0.00 | 73 | 1000.0 |
| 20260505041519 | 63 | 196 | 7.0 | 14.0 | 0.00 | 0.01 | 0.00 | 74 | 1000.0 |
| 20260505041413 | 63 | 234 | 6.0 | 14.0 | 0.00 | 0.01 | 0.00 | 74 | 999.6 |
| 20260505041308 | 63 | 177 | 4.0 | 14.0 | 0.00 | 0.01 | 0.00 | 74 | 1000.0 |
| 20260505041202 | 63 | 241 | 6.0 | 14.0 | 0.00 | 0.01 | 0.00 | 74 | 1000.0 |
| 20260505041056 | 63 | 245 | 10.0 | 14.0 | 0.00 | 0.01 | 0.00 | 74 | 1000.0 |
| 20260505040951 | 63 | 202 | 5.0 | 10.0 | 0.00 | 0.01 | 0.00 | 75 | 1000.0 |
| 20260505040847 | 63 | 196 | 6.0 | 10.0 | 0.00 | 0.01 | 0.00 | 75 | 1000.0 |
| 20260505040757 | 63 | 239 | 6.0 | 10.0 | 0.00 | 0.01 | 0.00 | 74 | 1000.0 |
| 20260505040739 | 63 | 211 | 5.0 | 10.0 | 0.00 | 0.01 | 0.00 | 74 | 1000.0 |
| 20260505040635 | 63 | 267 | 4.0 | 10.0 | 0.00 | 0.01 | 0.00 | 75 | 1000.0 |
| 20260505040528 | 63 | 237 | 4.0 | 11.0 | 0.00 | 0.01 | 0.00 | 75 | 1000.0 |
| 20260505040423 | 63 | 227 | 6.0 | 11.0 | 0.00 | 0.01 | 0.00 | 75 | 999.6 |
| 20260505040317 | 63 | 240 | 6.0 | 11.0 | 0.00 | 0.01 | 0.00 | 75 | 999.6 |
| 20260505040250 | 63 | 209 | 9.0 | 11.0 | 0.00 | 0.01 | 0.00 | 75 | 999.6 |
| 20260505040211 | 63 | 209 | 5.0 | 13.0 | 0.00 | 0.01 | 0.00 | 75 | 1000.0 |
| 20260505040118 | 63 | 258 | 3.0 | 13.0 | 0.00 | 0.01 | 0.00 | 75 | 1000.0 |
| 20260505035959 | 63 | 185 | 6.0 | 13.0 | 0.00 | 0.01 | 0.01 | 75 | 1000.0 |
| 20260505035855 | 63 | 199 | 7.0 | 13.0 | 0.00 | 0.01 | 0.01 | 75 | 1000.0 |
| 20260505035748 | 63 | 233 | 7.0 | 15.0 | 0.00 | 0.01 | 0.01 | 75 | 1000.0 |
| 20260505035642 | 63 | 186 | 6.0 | 15.0 | 0.00 | 0.01 | 0.01 | 75 | 1000.0 |
| 20260505035536 | 63 | 194 | 8.0 | 15.0 | 0.00 | 0.01 | 0.01 | 75 | 1000.0 |
| 20260505035430 | 63 | 209 | 4.0 | 15.0 | 0.00 | 0.01 | 0.01 | 75 | 1000.0 |
| 20260505035324 | 63 | 137 | 9.0 | 15.0 | 0.00 | 0.01 | 0.01 | 75 | 1000.0 |
| 20260505035236 | 63 | 207 | 8.0 | 15.0 | 0.00 | 0.01 | 0.01 | 75 | 1000.0 |
| 20260505035218 | 63 | 238 | 6.0 | 15.0 | 0.00 | 0.01 | 0.01 | 75 | 999.6 |
| 20260505035114 | 63 | 214 | 6.0 | 15.0 | 0.00 | 0.01 | 0.01 | 75 | 1000.0 |
| 20260505035008 | 63 | 221 | 7.0 | 15.0 | 0.00 | 0.01 | 0.01 | 75 | 1000.0 |
| 20260505034902 | 62 | 230 | 8.0 | 15.0 | 0.00 | 0.01 | 0.01 | 75 | 1000.0 |
| 20260505034757 | 62 | 228 | 7.0 | 11.0 | 0.00 | 0.01 | 0.01 | 76 | 1000.0 |
| 20260505034729 | 62 | 201 | 9.0 | 11.0 | 0.00 | 0.01 | 0.01 | 76 | 999.6 |
| 20260505034650 | 62 | 193 | 4.0 | 11.0 | 0.00 | 0.01 | 0.01 | 76 | 999.6 |
| 20260505034544 | 62 | 203 | 6.0 | 11.0 | 0.00 | 0.01 | 0.01 | 76 | 999.6 |
| 20260505034439 | 62 | 214 | 3.0 | 11.0 | 0.00 | 0.01 | 0.01 | 76 | 1000.0 |
| 20260505034334 | 62 | 213 | 3.0 | 11.0 | 0.00 | 0.01 | 0.01 | 76 | 999.6 |
| 20260505034227 | 62 | 169 | 4.0 | 11.0 | 0.00 | 0.01 | 0.01 | 77 | 999.6 |
| 20260505034123 | 62 | 221 | 4.0 | 11.0 | 0.00 | 0.01 | 0.01 | 76 | 999.6 |
| 20260505034017 | 62 | 235 | 5.0 | 10.0 | 0.00 | 0.01 | 0.01 | 76 | 999.6 |
| 20260505033912 | 62 | 211 | 3.0 | 10.0 | 0.00 | 0.01 | 0.01 | 76 | 1000.0 |
| 20260505033806 | 62 | 245 | 4.0 | 10.0 | 0.00 | 0.01 | 0.01 | 76 | 1000.0 |
| 20260505033717 | 62 | 187 | 4.0 | 10.0 | 0.00 | 0.01 | 0.01 | 76 | 1000.0 |
| 20260505033700 | 62 | 187 | 4.0 | 10.0 | 0.00 | 0.01 | 0.01 | 76 | 1000.0 |
| 20260505033555 | 62 | 207 | 4.0 | 10.0 | 0.00 | 0.01 | 0.01 | 76 | 1000.0 |
| 20260505033449 | 62 | 211 | 4.0 | 10.0 | 0.00 | 0.01 | 0.01 | 76 | 1000.0 |
| 20260505033343 | 62 | 224 | 6.0 | 10.0 | 0.00 | 0.01 | 0.01 | 76 | 999.6 |
| 20260505033238 | 62 | 220 | 4.0 | 10.0 | 0.00 | 0.01 | 0.01 | 77 | 1000.0 |
| 20260505033211 | 62 | 152 | 2.0 | 10.0 | 0.00 | 0.01 | 0.01 | 77 | 1000.0 |
| 20260505033132 | 62 | 223 | 7.0 | 10.0 | 0.00 | 0.01 | 0.01 | 76 | 1000.0 |
| 20260505033026 | 62 | 202 | 4.0 | 9.0 | 0.00 | 0.01 | 0.01 | 76 | 1000.0 |
| 20260505032922 | 62 | 205 | 2.0 | 9.0 | 0.00 | 0.01 | 0.01 | 76 | 1000.0 |
| 20260505032816 | 62 | 168 | 3.0 | 9.0 | 0.00 | 0.01 | 0.01 | 76 | 999.6 |
| 20260505032709 | 62 | 218 | 5.0 | 11.0 | 0.00 | 0.01 | 0.01 | 76 | 1000.0 |
| 20260505032604 | 62 | 223 | 3.0 | 11.0 | 0.00 | 0.01 | 0.01 | 76 | 1000.0 |
| 20260505032458 | 62 | 193 | 5.0 | 11.0 | 0.00 | 0.01 | 0.01 | 76 | 999.6 |
| 20260505032353 | 62 | 195 | 5.0 | 11.0 | 0.00 | 0.01 | 0.01 | 76 | 999.6 |
| 20260505032248 | 62 | 196 | 6.0 | 11.0 | 0.00 | 0.01 | 0.01 | 76 | 1000.0 |
| 20260505032159 | 62 | 210 | 6.0 | 11.0 | 0.00 | 0.01 | 0.01 | 76 | 1000.0 |
| 20260505032142 | 62 | 187 | 5.0 | 11.0 | 0.00 | 0.01 | 0.01 | 76 | 1000.0 |
| 20260505032036 | 63 | 205 | 3.0 | 11.0 | 0.00 | 0.01 | 0.01 | 76 | 1000.0 |
| 20260505031930 | 63 | 227 | 3.0 | 11.0 | 0.00 | 0.01 | 0.01 | 75 | 1000.0 |
| 20260505031825 | 63 | 190 | 8.0 | 11.0 | 0.00 | 0.01 | 0.01 | 75 | 1000.0 |
| 20260505031720 | 62 | 209 | 4.0 | 10.0 | 0.00 | 0.01 | 0.01 | 75 | 1000.0 |
| 20260505031652 | 62 | 171 | 6.0 | 10.0 | 0.00 | 0.01 | 0.01 | 76 | 1000.0 |
| 20260505031611 | 62 | 188 | 4.0 | 10.0 | 0.00 | 0.01 | 0.01 | 76 | 1000.0 |
| 20260505031505 | 62 | 196 | 6.0 | 10.0 | 0.00 | 0.01 | 0.01 | 76 | 1000.0 |
| 20260505031359 | 63 | 216 | 3.0 | 10.0 | 0.00 | 0.01 | 0.01 | 76 | 1000.0 |
| 20260505031254 | 62 | 228 | 7.0 | 10.0 | 0.00 | 0.01 | 0.01 | 76 | 1000.3 |
| 20260505031149 | 62 | 175 | 5.0 | 10.0 | 0.00 | 0.01 | 0.01 | 76 | 1000.0 |
| 20260505031044 | 62 | 157 | 7.0 | 10.0 | 0.00 | 0.01 | 0.01 | 76 | 1000.0 |
| 20260505030939 | 62 | 228 | 2.0 | 10.0 | 0.00 | 0.01 | 0.01 | 76 | 1000.0 |
| 20260505030834 | 62 | 229 | 5.0 | 10.0 | 0.00 | 0.01 | 0.01 | 76 | 1000.0 |
| 20260505030728 | 62 | 217 | 3.0 | 11.0 | 0.00 | 0.01 | 0.01 | 76 | 1000.0 |
| 20260505030639 | 62 | 187 | 3.0 | 11.0 | 0.00 | 0.01 | 0.01 | 76 | 1000.0 |
| 20260505030635 | 62 | 169 | 4.0 | 11.0 | 0.00 | 0.01 | 0.01 | 76 | 1000.3 |
| 20260505030516 | 62 | 210 | 3.0 | 11.0 | 0.00 | 0.01 | 0.01 | 76 | 1000.3 |
| 20260505030410 | 62 | 181 | 6.0 | 11.0 | 0.00 | 0.01 | 0.01 | 76 | 1000.3 |
| 20260505030306 | 62 | 159 | 4.0 | 11.0 | 0.00 | 0.01 | 0.01 | 76 | 1000.3 |
| 20260505030200 | 62 | 154 | 6.0 | 11.0 | 0.00 | 0.01 | 0.01 | 76 | 1000.3 |
| 20260505030134 | 62 | 208 | 5.0 | 11.0 | 0.00 | 0.01 | 0.01 | 76 | 1000.3 |
| 20260505030106 | 62 | 214 | 6.0 | 11.0 | 0.00 | 0.01 | 0.01 | 76 | 1000.3 |
| 20260505025949 | 62 | 218 | 5.0 | 11.0 | 0.00 | 0.01 | 0.01 | 77 | 1000.3 |
| 20260505025844 | 62 | 189 | 7.0 | 11.0 | 0.00 | 0.01 | 0.01 | 76 | 1000.0 |
| 20260505025737 | 62 | 166 | 1.0 | 9.0 | 0.00 | 0.01 | 0.01 | 77 | 1000.3 |
| 20260505025631 | 62 | 330 | 3.0 | 9.0 | 0.00 | 0.01 | 0.01 | 76 | 1000.3 |
| 20260505025525 | 62 | 220 | 2.0 | 9.0 | 0.00 | 0.01 | 0.01 | 77 | 1000.3 |
| 20260505025419 | 62 | 216 | 5.0 | 9.0 | 0.00 | 0.01 | 0.01 | 76 | 1000.0 |
| 20260505025314 | 62 | 184 | 6.0 | 9.0 | 0.00 | 0.01 | 0.01 | 77 | 1000.3 |
| 20260505025209 | 62 | 186 | 2.0 | 9.0 | 0.00 | 0.01 | 0.01 | 76 | 1000.3 |
| 20260505025119 | 62 | 236 | 4.0 | 9.0 | 0.00 | 0.01 | 0.01 | 76 | 1000.3 |
| 20260505025104 | 62 | 168 | 6.0 | 9.0 | 0.00 | 0.01 | 0.01 | 77 | 1000.3 |
| 20260505024957 | 62 | 193 | 3.0 | 9.0 | 0.00 | 0.01 | 0.01 | 76 | 1000.3 |
| 20260505024852 | 62 | 207 | 8.0 | 9.0 | 0.00 | 0.01 | 0.01 | 76 | 1000.3 |
| 20260505024746 | 63 | 213 | 4.0 | 9.0 | 0.00 | 0.01 | 0.01 | 76 | 1000.3 |
| 20260505024640 | 62 | 190 | 5.0 | 9.0 | 0.00 | 0.01 | 0.01 | 76 | 1000.3 |
| 20260505024614 | 62 | 223 | 5.0 | 9.0 | 0.00 | 0.01 | 0.01 | 76 | 1000.3 |
| 20260505024535 | 62 | 202 | 4.0 | 9.0 | 0.00 | 0.01 | 0.01 | 76 | 1000.3 |
| 20260505024429 | 62 | 210 | 6.0 | 9.0 | 0.00 | 0.01 | 0.01 | 76 | 1000.3 |
| 20260505024324 | 62 | 164 | 7.0 | 11.0 | 0.00 | 0.01 | 0.01 | 76 | 1000.3 |
| 20260505024218 | 62 | 210 | 4.0 | 11.0 | 0.00 | 0.01 | 0.01 | 76 | 1000.6 |
| 20260505024112 | 62 | 212 | 4.0 | 11.0 | 0.00 | 0.01 | 0.01 | 76 | 1000.3 |
| 20260505024007 | 62 | 210 | 4.0 | 11.0 | 0.00 | 0.01 | 0.01 | 76 | 1000.3 |
| 20260505023904 | 63 | 205 | 3.0 | 11.0 | 0.00 | 0.01 | 0.01 | 76 | 1000.3 |
| 20260505023755 | 63 | 183 | 3.0 | 11.0 | 0.00 | 0.01 | 0.01 | 76 | 1000.3 |
| 20260505023650 | 63 | 228 | 5.0 | 14.0 | 0.00 | 0.01 | 0.01 | 76 | 1000.6 |
| 20260505023601 | 63 | 208 | 4.0 | 14.0 | 0.00 | 0.01 | 0.01 | 76 | 1000.6 |
| 20260505023544 | 63 | 166 | 5.0 | 14.0 | 0.00 | 0.01 | 0.01 | 76 | 1000.6 |
| 20260505023439 | 63 | 188 | 8.0 | 14.0 | 0.00 | 0.01 | 0.01 | 75 | 1000.3 |
| 20260505023333 | 63 | 171 | 4.0 | 14.0 | 0.00 | 0.01 | 0.01 | 75 | 1000.3 |
| 20260505023227 | 63 | 213 | 5.0 | 14.0 | 0.00 | 0.01 | 0.01 | 75 | 1000.3 |
| 20260505023121 | 63 | 188 | 5.0 | 14.0 | 0.00 | 0.01 | 0.01 | 75 | 1000.3 |
| 20260505023055 | 63 | 214 | 6.0 | 14.0 | 0.00 | 0.01 | 0.01 | 75 | 1000.3 |
| 20260505023015 | 63 | 218 | 6.0 | 14.0 | 0.00 | 0.01 | 0.01 | 75 | 1000.3 |
| 20260505022910 | 63 | 204 | 8.0 | 14.0 | 0.00 | 0.01 | 0.01 | 75 | 1000.3 |
| 20260505022804 | 63 | 230 | 8.0 | 14.0 | 0.00 | 0.01 | 0.01 | 75 | 1000.3 |
| 20260505022657 | 63 | 202 | 3.0 | 11.0 | 0.00 | 0.01 | 0.01 | 76 | 1000.3 |
| 20260505022552 | 63 | 215 | 4.0 | 11.0 | 0.00 | 0.01 | 0.01 | 75 | 1000.3 |
| 20260505022446 | 63 | 193 | 4.0 | 11.0 | 0.00 | 0.01 | 0.01 | 75 | 1000.3 |
| 20260505022353 | 63 | 235 | 5.0 | 11.0 | 0.00 | 0.01 | 0.01 | 75 | 1000.3 |
| 20260505022312 | 63 | 207 | 5.0 | 11.0 | 0.00 | 0.01 | 0.01 | 74 | 1000.3 |
| 20260505022307 | 63 | 184 | 2.0 | 11.0 | 0.00 | 0.01 | 0.01 | 75 | 1000.0 |
| 20260505022258 | 63 | 225 | 4.0 | 11.0 | 0.00 | 0.01 | 0.01 | 74 | 1000.3 |
| 20260505022023 | 63 | 216 | 7.0 | 11.0 | 0.00 | 0.01 | 0.01 | 75 | 1000.3 |
| 20260505021918 | 63 | 231 | 6.0 | 8.0 | 0.00 | 0.01 | 0.01 | 75 | 1000.3 |
| 20260505021819 | 63 | 177 | 6.0 | 9.0 | 0.00 | 0.01 | 0.01 | 75 | 1000.3 |
| 20260505021815 | 63 | 196 | 4.0 | 7.0 | 0.00 | 0.01 | 0.01 | 75 | 1000.0 |
| 20260505021807 | 63 | 223 | 4.0 | 8.0 | 0.00 | 0.01 | 0.01 | 75 | 1000.0 |
| 20260505021758 | 63 | 214 | 4.0 | 9.0 | 0.00 | 0.01 | 0.01 | 75 | 1000.3 |
| 20260505021456 | 63 | 206 | 3.0 | 10.0 | 0.00 | 0.01 | 0.01 | 76 | 1000.3 |
| 20260505021350 | 63 | 238 | 5.0 | 10.0 | 0.00 | 0.01 | 0.01 | 75 | 1000.0 |
| 20260505021245 | 63 | 198 | 2.0 | 10.0 | 0.00 | 0.01 | 0.01 | 75 | 1000.3 |
| 20260505021139 | 63 | 188 | 2.0 | 10.0 | 0.00 | 0.01 | 0.01 | 75 | 1000.3 |
| 20260505021034 | 63 | 199 | 3.0 | 10.0 | 0.00 | 0.01 | 0.01 | 75 | 1000.3 |
| 20260505020928 | 63 | 195 | 4.0 | 11.0 | 0.00 | 0.01 | 0.01 | 75 | 1000.3 |
| 20260505020822 | 63 | 195 | 4.0 | 11.0 | 0.00 | 0.01 | 0.01 | 75 | 1000.3 |
| 20260505020713 | 63 | 125 | 5.0 | 11.0 | 0.00 | 0.01 | 0.01 | 75 | 1000.0 |
| 20260505020607 | 63 | 186 | 4.0 | 11.0 | 0.00 | 0.01 | 0.01 | 74 | 1000.0 |
| 20260505020529 | 63 | 167 | 7.0 | 11.0 | 0.00 | 0.01 | 0.01 | 75 | 1000.0 |
| 20260505020501 | 63 | 238 | 4.0 | 11.0 | 0.00 | 0.01 | 0.01 | 75 | 1000.0 |
| 20260505020355 | 63 | 222 | 6.0 | 11.0 | 0.00 | 0.01 | 0.01 | 75 | 1000.0 |
| 20260505020249 | 63 | 204 | 3.0 | 11.0 | 0.00 | 0.01 | 0.01 | 75 | 1000.3 |
| 20260505020143 | 62 | 175 | 5.0 | 11.0 | 0.00 | 0.01 | 0.01 | 75 | 1000.0 |
| 20260505020023 | 62 | 229 | 6.0 | 11.0 | 0.00 | 0.01 | 0.01 | 76 | 1000.3 |
| 20260505015933 | 62 | 206 | 5.0 | 10.0 | 0.00 | 0.01 | 0.01 | 77 | 1000.3 |
| 20260505015827 | 62 | 224 | 2.0 | 10.0 | 0.00 | 0.01 | 0.01 | 77 | 1000.3 |
| 20260505015751 | 62 | 216 | 6.0 | 10.0 | 0.00 | 0.01 | 0.01 | 76 | 1000.0 |
| 20260505015746 | 62 | 200 | 3.0 | 10.0 | 0.00 | 0.01 | 0.01 | 77 | 1000.3 |
| 20260505015738 | 62 | 185 | 2.0 | 10.0 | 0.00 | 0.01 | 0.01 | 76 | 1000.3 |
| 20260505015450 | 62 | 206 | 6.0 | 10.0 | 0.00 | 0.01 | 0.01 | 77 | 1000.0 |
| 20260505015344 | 62 | 217 | 2.0 | 10.0 | 0.00 | 0.01 | 0.01 | 77 | 1000.0 |
| 20260505015247 | 62 | 168 | 3.0 | 10.0 | 0.00 | 0.01 | 0.01 | 76 | 1000.3 |
| 20260505015239 | 62 | 238 | 2.0 | 10.0 | 0.00 | 0.01 | 0.01 | 76 | 1000.3 |
| 20260505015230 | 62 | 170 | 4.0 | 7.0 | 0.00 | 0.01 | 0.01 | 78 | 1000.3 |
| 20260505014922 | 62 | 216 | 4.0 | 7.0 | 0.00 | 0.01 | 0.01 | 77 | 1000.3 |
| 20260505014816 | 62 | 219 | 4.0 | 7.0 | 0.00 | 0.01 | 0.01 | 77 | 1000.3 |
| 20260505014710 | 62 | 208 | 4.0 | 7.0 | 0.00 | 0.01 | 0.01 | 77 | 1000.3 |
| 20260505014605 | 62 | 184 | 3.0 | 7.0 | 0.00 | 0.01 | 0.01 | 78 | 1000.0 |
| 20260505014506 | 62 | 235 | 3.0 | 7.0 | 0.00 | 0.01 | 0.01 | 78 | 1000.3 |
| 20260505014459 | 62 | 235 | 3.0 | 7.0 | 0.00 | 0.01 | 0.01 | 78 | 1000.3 |
| 20260505014354 | 61 | 185 | 4.0 | 7.0 | 0.00 | 0.01 | 0.01 | 78 | 1000.3 |
| 20260505014248 | 61 | 197 | 4.0 | 7.0 | 0.00 | 0.01 | 0.01 | 78 | 1000.3 |
| 20260505014143 | 61 | 203 | 4.0 | 7.0 | 0.00 | 0.01 | 0.01 | 78 | 1000.3 |
| 20260505014037 | 61 | 231 | 4.0 | 7.0 | 0.00 | 0.01 | 0.01 | 78 | 1000.0 |
| 20260505014000 | 61 | 195 | 5.0 | 7.0 | 0.00 | 0.01 | 0.01 | 79 | 1000.0 |
| 20260505013932 | 61 | 199 | 4.0 | 7.0 | 0.00 | 0.01 | 0.01 | 79 | 1000.3 |
| 20260505013826 | 61 | 229 | 2.0 | 7.0 | 0.00 | 0.01 | 0.01 | 79 | 1000.3 |
| 20260505013720 | 61 | 218 | 2.0 | 7.0 | 0.00 | 0.01 | 0.01 | 79 | 1000.3 |
| 20260505013615 | 61 | 176 | 2.0 | 7.0 | 0.00 | 0.01 | 0.01 | 79 | 1000.3 |
| 20260505013509 | 61 | 216 | 3.0 | 7.0 | 0.00 | 0.01 | 0.01 | 79 | 1000.0 |
| 20260505013454 | 61 | 209 | 2.0 | 7.0 | 0.00 | 0.01 | 0.01 | 79 | 1000.0 |
| 20260505013404 | 61 | 187 | 3.0 | 7.0 | 0.00 | 0.01 | 0.01 | 79 | 1000.3 |
| 20260505013259 | 61 | 189 | 5.0 | 8.0 | 0.00 | 0.01 | 0.01 | 79 | 1000.3 |
| 20260505013152 | 61 | 220 | 2.0 | 8.0 | 0.00 | 0.01 | 0.01 | 79 | 1000.0 |
| 20260505013046 | 61 | 211 | 4.0 | 8.0 | 0.00 | 0.01 | 0.01 | 79 | 1000.3 |
| 20260505012946 | 61 | 209 | 4.0 | 8.0 | 0.00 | 0.01 | 0.01 | 78 | 1000.3 |
| 20260505012940 | 61 | 217 | 4.0 | 8.0 | 0.00 | 0.01 | 0.01 | 78 | 1000.3 |
| 20260505012834 | 62 | 201 | 5.0 | 8.0 | 0.00 | 0.01 | 0.01 | 78 | 1000.3 |
| 20260505012728 | 62 | 159 | 2.0 | 8.0 | 0.00 | 0.01 | 0.01 | 78 | 1000.0 |
| 20260505012624 | 62 | 245 | 5.0 | 8.0 | 0.00 | 0.01 | 0.01 | 78 | 1000.0 |
| 20260505012518 | 62 | 206 | 4.0 | 8.0 | 0.00 | 0.01 | 0.01 | 78 | 1000.0 |
| 20260505012440 | 62 | 197 | 4.0 | 8.0 | 0.00 | 0.01 | 0.01 | 78 | 1000.0 |
| 20260505012413 | 61 | 181 | 6.0 | 8.0 | 0.00 | 0.01 | 0.01 | 78 | 1000.0 |
| 20260505012307 | 61 | 207 | 4.0 | 8.0 | 0.00 | 0.01 | 0.01 | 78 | 1000.0 |
| 20260505012201 | 61 | 158 | 4.0 | 8.0 | 0.00 | 0.01 | 0.01 | 78 | 1000.0 |
| 20260505012054 | 61 | 197 | 2.0 | 8.0 | 0.01 | 0.01 | 0.01 | 78 | 1000.0 |
| 20260505011933 | 61 | 209 | 7.0 | 8.0 | 0.01 | 0.01 | 0.01 | 79 | 1000.0 |
| 20260505011843 | 62 | 211 | 2.0 | 7.0 | 0.01 | 0.01 | 0.01 | 79 | 1000.0 |
| 20260505011737 | 62 | 195 | 4.0 | 7.0 | 0.01 | 0.01 | 0.01 | 78 | 1000.0 |
| 20260505011631 | 62 | 213 | 4.0 | 7.0 | 0.01 | 0.01 | 0.01 | 78 | 999.6 |
| 20260505011526 | 62 | 214 | 4.0 | 7.0 | 0.01 | 0.01 | 0.01 | 78 | 1000.0 |
| 20260505011427 | 62 | 215 | 3.0 | 7.0 | 0.01 | 0.01 | 0.01 | 78 | 1000.0 |
| 20260505011421 | 62 | 194 | 5.0 | 7.0 | 0.01 | 0.01 | 0.01 | 78 | 1000.0 |
| 20260505011316 | 62 | 219 | 4.0 | 7.0 | 0.01 | 0.01 | 0.01 | 78 | 999.6 |
| 20260505011210 | 61 | 228 | 4.0 | 7.0 | 0.01 | 0.01 | 0.01 | 79 | 1000.0 |
| 20260505011105 | 61 | 193 | 4.0 | 7.0 | 0.01 | 0.01 | 0.01 | 78 | 1000.0 |
| 20260505010958 | 62 | 193 | 2.0 | 7.0 | 0.01 | 0.01 | 0.01 | 78 | 1000.0 |
| 20260505010920 | 62 | 215 | 2.0 | 7.0 | 0.01 | 0.01 | 0.01 | 79 | 1000.0 |
| 20260505010852 | 62 | 242 | 3.0 | 7.0 | 0.01 | 0.01 | 0.01 | 78 | 1000.0 |
| 20260505010746 | 62 | 187 | 3.0 | 7.0 | 0.01 | 0.01 | 0.01 | 79 | 1000.0 |
| 20260505010641 | 61 | 212 | 3.0 | 7.0 | 0.01 | 0.01 | 0.01 | 78 | 1000.0 |
| 20260505010535 | 61 | 241 | 4.0 | 7.0 | 0.01 | 0.01 | 0.01 | 79 | 999.6 |
| 20260505010442 | 61 | 220 | 1.0 | 7.0 | 0.01 | 0.01 | 0.01 | 80 | 1000.0 |
| 20260505010415 | 61 | 221 | 2.0 | 7.0 | 0.01 | 0.01 | 0.01 | 80 | 1000.0 |
| 20260505010324 | 61 | 208 | 4.0 | 7.0 | 0.01 | 0.01 | 0.01 | 79 | 999.6 |
| 20260505010220 | 61 | 213 | 2.0 | 7.0 | 0.01 | 0.01 | 0.01 | 79 | 999.6 |
| 20260505010115 | 61 | 196 | 2.0 | 7.0 | 0.01 | 0.01 | 0.01 | 79 | 999.6 |
| 20260505010007 | 61 | 229 | 3.0 | 8.0 | 0.01 | 0.01 | 0.01 | 79 | 1000.0 |
| 20260505005908 | 61 | 220 | 2.0 | 13.0 | 0.01 | 0.01 | 0.01 | 79 | 999.6 |
| 20260505005901 | 61 | 219 | 2.0 | 13.0 | 0.01 | 0.01 | 0.01 | 79 | 999.6 |
| 20260505005756 | 61 | 221 | 3.0 | 13.0 | 0.01 | 0.01 | 0.01 | 79 | 999.6 |
| 20260505005650 | 61 | 199 | 2.0 | 13.0 | 0.01 | 0.01 | 0.01 | 79 | 999.6 |
| 20260505005544 | 61 | 234 | 4.0 | 13.0 | 0.01 | 0.01 | 0.01 | 80 | 999.6 |
| 20260505005439 | 61 | 220 | 6.0 | 13.0 | 0.01 | 0.01 | 0.01 | 80 | 1000.0 |
| 20260505005401 | 61 | 226 | 3.0 | 13.0 | 0.01 | 0.01 | 0.01 | 80 | 1000.0 |
| 20260505005333 | 61 | 177 | 3.0 | 13.0 | 0.01 | 0.01 | 0.01 | 80 | 999.6 |
| 20260505005228 | 62 | 232 | 5.0 | 13.0 | 0.01 | 0.01 | 0.01 | 80 | 999.6 |
| 20260505005122 | 62 | 236 | 6.0 | 14.0 | 0.01 | 0.01 | 0.01 | 79 | 1000.0 |
| 20260505005017 | 62 | 228 | 3.0 | 14.0 | 0.01 | 0.01 | 0.01 | 78 | 1000.0 |
| 20260505004912 | 62 | 242 | 6.0 | 15.0 | 0.01 | 0.01 | 0.01 | 79 | 1000.0 |
| 20260505004855 | 62 | 242 | 6.0 | 15.0 | 0.01 | 0.01 | 0.01 | 79 | 1000.0 |
| 20260505004805 | 62 | 248 | 6.0 | 15.0 | 0.01 | 0.01 | 0.01 | 78 | 1000.0 |
| 20260505004659 | 62 | 169 | 2.0 | 15.0 | 0.01 | 0.01 | 0.01 | 78 | 1000.0 |
| 20260505004555 | 62 | 231 | 6.0 | 15.0 | 0.01 | 0.01 | 0.01 | 79 | 999.6 |
| 20260505004448 | 62 | 266 | 6.0 | 15.0 | 0.01 | 0.01 | 0.01 | 79 | 999.6 |
| 20260505004349 | 62 | 257 | 3.0 | 15.0 | 0.01 | 0.01 | 0.01 | 78 | 1000.0 |
| 20260505004343 | 62 | 236 | 4.0 | 15.0 | 0.01 | 0.01 | 0.01 | 78 | 1000.0 |
| 20260505004237 | 62 | 215 | 4.0 | 15.0 | 0.01 | 0.01 | 0.01 | 78 | 1000.0 |
| 20260505004132 | 62 | 214 | 6.0 | 15.0 | 0.01 | 0.01 | 0.01 | 78 | 999.6 |
| 20260505004027 | 62 | 223 | 4.0 | 15.0 | 0.01 | 0.01 | 0.01 | 78 | 1000.0 |
| 20260505003921 | 62 | 252 | 12.0 | 15.0 | 0.01 | 0.01 | 0.01 | 78 | 1000.0 |
| 20260505003843 | 62 | 221 | 5.0 | 14.0 | 0.01 | 0.01 | 0.01 | 78 | 1000.0 |
| 20260505003814 | 62 | 201 | 7.0 | 14.0 | 0.01 | 0.01 | 0.01 | 77 | 999.6 |
| 20260505003708 | 62 | 250 | 5.0 | 14.0 | 0.01 | 0.01 | 0.01 | 77 | 999.6 |
| 20260505003604 | 62 | 228 | 6.0 | 14.0 | 0.01 | 0.01 | 0.01 | 77 | 999.6 |
| 20260505003459 | 62 | 205 | 4.0 | 14.0 | 0.01 | 0.01 | 0.01 | 78 | 999.3 |
| 20260505003352 | 62 | 231 | 5.0 | 14.0 | 0.01 | 0.01 | 0.01 | 78 | 999.6 |
| 20260505003336 | 62 | 232 | 2.0 | 14.0 | 0.01 | 0.01 | 0.01 | 78 | 999.6 |
| 20260505003246 | 62 | 202 | 9.0 | 14.0 | 0.01 | 0.01 | 0.01 | 77 | 999.6 |
| 20260505003141 | 62 | 199 | 8.0 | 14.0 | 0.01 | 0.01 | 0.01 | 77 | 999.6 |
| 20260505003035 | 61 | 224 | 9.0 | 14.0 | 0.01 | 0.01 | 0.01 | 77 | 999.6 |
| 20260505002930 | 61 | 205 | 7.0 | 13.0 | 0.01 | 0.01 | 0.01 | 78 | 999.3 |
| 20260505002825 | 61 | 220 | 6.0 | 14.0 | 0.01 | 0.01 | 0.01 | 77 | 999.6 |
| 20260505002718 | 61 | 178 | 9.0 | 17.0 | 0.01 | 0.01 | 0.01 | 78 | 999.3 |
| 20260505002615 | 61 | 228 | 5.0 | 17.0 | 0.01 | 0.01 | 0.01 | 78 | 999.6 |
| 20260505002509 | 61 | 214 | 6.0 | 17.0 | 0.01 | 0.01 | 0.01 | 79 | 999.6 |
| 20260505002405 | 61 | 228 | 5.0 | 17.0 | 0.01 | 0.01 | 0.01 | 79 | 999.6 |
| 20260505002327 | 62 | 248 | 6.0 | 17.0 | 0.01 | 0.01 | 0.01 | 78 | 999.6 |
| 20260505002259 | 62 | 220 | 5.0 | 17.0 | 0.01 | 0.01 | 0.01 | 78 | 999.6 |
| 20260505002153 | 62 | 257 | 6.0 | 17.0 | 0.01 | 0.01 | 0.01 | 76 | 999.6 |
| 20260505002046 | 63 | 196 | 7.0 | 18.0 | 0.00 | 0.00 | 0.01 | 75 | 999.6 |
| 20260505001940 | 65 | 237 | 5.0 | 18.0 | 0.00 | 0.00 | 0.00 | 72 | 999.6 |
| 20260505001836 | 66 | 238 | 9.0 | 18.0 | 0.00 | 0.00 | 0.00 | 69 | 999.6 |
| 20260505001819 | 66 | 212 | 10.0 | 18.0 | 0.00 | 0.00 | 0.00 | 68 | 999.6 |
| 20260505001729 | 66 | 223 | 9.0 | 18.0 | 0.00 | 0.00 | 0.00 | 65 | 999.3 |
| 20260505001623 | 66 | 229 | 9.0 | 19.0 | 0.00 | 0.00 | 0.00 | 62 | 999.6 |
| 20260505001519 | 67 | 208 | 6.0 | 19.0 | 0.00 | 0.00 | 0.00 | 61 | 999.6 |
| 20260505001413 | 67 | 202 | 7.0 | 21.0 | 0.00 | 0.00 | 0.00 | 61 | 999.6 |
| 20260505001314 | 67 | 242 | 8.0 | 21.0 | 0.00 | 0.00 | 0.00 | 60 | 999.6 |
| 20260505001306 | 67 | 235 | 7.0 | 21.0 | 0.00 | 0.00 | 0.00 | 60 | 999.6 |
| 20260505001202 | 67 | 177 | 15.0 | 22.0 | 0.00 | 0.00 | 0.00 | 59 | 999.6 |
| 20260505001055 | 67 | 231 | 10.0 | 25.0 | 0.00 | 0.00 | 0.00 | 59 | 999.6 |
| 20260505001040 | 67 | 210 | 13.0 | 25.0 | 0.00 | 0.00 | 0.00 | 58 | 999.3 |
| 20260505001035 | 67 | 254 | 6.0 | 25.0 | 0.00 | 0.00 | 0.00 | 59 | 999.6 |
| 20260505001026 | 67 | 151 | 6.0 | 25.0 | 0.00 | 0.00 | 0.00 | 58 | 999.6 |
| 20260505000739 | 67 | 224 | 8.0 | 25.0 | 0.00 | 0.00 | 0.00 | 58 | 999.3 |
| 20260505000633 | 67 | 198 | 18.0 | 31.0 | 0.00 | 0.00 | 0.00 | 57 | 999.3 |
| 20260505000527 | 68 | 243 | 8.0 | 31.0 | 0.00 | 0.00 | 0.00 | 57 | 999.3 |
| 20260505000421 | 68 | 219 | 9.0 | 31.0 | 0.00 | 0.00 | 0.00 | 57 | 999.3 |
| 20260505000315 | 68 | 176 | 16.0 | 31.0 | 0.00 | 0.00 | 0.00 | 57 | 999.3 |
| 20260505000300 | 68 | 176 | 16.0 | 31.0 | 0.00 | 0.00 | 0.00 | 57 | 999.3 |
| 20260505000211 | 69 | 268 | 13.0 | 31.0 | 0.00 | 0.00 | 0.00 | 57 | 999.3 |
| 20260505000104 | 69 | 179 | 11.0 | 31.0 | 0.00 | 0.00 | 0.00 | 57 | 998.8 |
| 20260504235958 | 70 | 209 | 9.0 | 31.0 | 0.00 | 0.00 | 0.00 | 57 | 998.8 |
| 20260504235852 | 71 | 132 | 9.0 | 31.0 | 0.00 | 0.00 | 0.00 | 57 | 998.8 |
| 20260504235747 | 72 | 187 | 15.0 | 31.0 | 0.00 | 0.00 | 0.00 | 55 | 999.3 |
| 20260504235641 | 73 | 198 | 15.0 | 23.0 | 0.00 | 0.00 | 0.00 | 53 | 998.8 |
| 20260504235534 | 73 | 191 | 10.0 | 13.0 | 0.00 | 0.00 | 0.00 | 53 | 998.8 |
| 20260504235428 | 73 | 213 | 4.0 | 10.0 | 0.00 | 0.00 | 0.00 | 52 | 998.8 |
| 20260504235322 | 73 | 209 | 5.0 | 10.0 | 0.00 | 0.00 | 0.00 | 52 | 998.8 |
| 20260504235245 | 73 | 225 | 6.0 | 10.0 | 0.00 | 0.00 | 0.00 | 52 | 998.8 |
| 20260504235217 | 73 | 239 | 7.0 | 10.0 | 0.00 | 0.00 | 0.00 | 52 | 998.8 |
| 20260504235111 | 73 | 178 | 6.0 | 10.0 | 0.00 | 0.00 | 0.00 | 52 | 998.8 |
| 20260504235006 | 73 | 230 | 4.0 | 10.0 | 0.00 | 0.00 | 0.00 | 52 | 998.8 |
| 20260504234900 | 73 | 217 | 4.0 | 10.0 | 0.00 | 0.00 | 0.00 | 52 | 998.5 |
| 20260504234754 | 73 | 199 | 5.0 | 10.0 | 0.00 | 0.00 | 0.00 | 52 | 998.8 |
| 20260504234739 | 73 | 197 | 3.0 | 10.0 | 0.00 | 0.00 | 0.00 | 52 | 998.8 |
| 20260504234649 | 73 | 182 | 5.0 | 11.0 | 0.00 | 0.00 | 0.00 | 52 | 998.8 |
| 20260504234543 | 73 | 223 | 3.0 | 11.0 | 0.00 | 0.00 | 0.00 | 52 | 998.5 |
| 20260504234437 | 73 | 188 | 4.0 | 11.0 | 0.00 | 0.00 | 0.00 | 52 | 998.5 |
| 20260504234331 | 73 | 161 | 3.0 | 11.0 | 0.00 | 0.00 | 0.00 | 52 | 998.8 |
| 20260504234232 | 73 | 252 | 4.0 | 11.0 | 0.00 | 0.00 | 0.00 | 52 | 998.8 |
| 20260504234226 | 73 | 225 | 3.0 | 11.0 | 0.00 | 0.00 | 0.00 | 52 | 998.8 |
| 20260504234120 | 73 | 233 | 4.0 | 11.0 | 0.00 | 0.00 | 0.00 | 52 | 998.8 |
| 20260504234014 | 73 | 229 | 4.0 | 11.0 | 0.00 | 0.00 | 0.00 | 52 | 998.5 |
| 20260504233922 | 73 | 225 | 3.0 | 11.0 | 0.00 | 0.00 | 0.00 | 51 | 998.8 |
| 20260504233804 | 73 | 256 | 5.0 | 11.0 | 0.00 | 0.00 | 0.00 | 51 | 998.8 |
| 20260504233726 | 73 | 256 | 5.0 | 11.0 | 0.00 | 0.00 | 0.00 | 51 | 998.8 |
| 20260504233658 | 73 | 203 | 8.0 | 11.0 | 0.00 | 0.00 | 0.00 | 51 | 998.8 |
| 20260504233552 | 73 | 231 | 5.0 | 11.0 | 0.00 | 0.00 | 0.00 | 51 | 998.8 |
| 20260504233446 | 73 | 202 | 4.0 | 11.0 | 0.00 | 0.00 | 0.00 | 51 | 998.8 |
| 20260504233340 | 73 | 207 | 6.0 | 11.0 | 0.00 | 0.00 | 0.00 | 50 | 998.8 |
| 20260504233219 | 73 | 200 | 4.0 | 11.0 | 0.00 | 0.00 | 0.00 | 50 | 998.8 |
| 20260504233130 | 73 | 196 | 7.0 | 11.0 | 0.00 | 0.00 | 0.00 | 50 | 998.8 |
| 20260504233023 | 73 | 253 | 6.0 | 11.0 | 0.00 | 0.00 | 0.00 | 50 | 998.8 |
| 20260504232917 | 73 | 222 | 5.0 | 11.0 | 0.00 | 0.00 | 0.00 | 50 | 998.8 |
| 20260504232812 | 73 | 197 | 4.0 | 8.0 | 0.00 | 0.00 | 0.00 | 50 | 998.8 |
| 20260504232706 | 73 | 164 | 2.0 | 8.0 | 0.00 | 0.00 | 0.00 | 50 | 998.8 |
| 20260504232600 | 73 | 251 | 4.0 | 8.0 | 0.00 | 0.00 | 0.00 | 50 | 998.8 |
| 20260504232454 | 73 | 204 | 3.0 | 9.0 | 0.00 | 0.00 | 0.00 | 49 | 998.8 |
| 20260504232349 | 73 | 186 | 5.0 | 9.0 | 0.00 | 0.00 | 0.00 | 50 | 998.8 |
| 20260504232244 | 73 | 201 | 3.0 | 9.0 | 0.00 | 0.00 | 0.00 | 49 | 998.8 |
| 20260504232206 | 73 | 231 | 2.0 | 11.0 | 0.00 | 0.00 | 0.00 | 50 | 998.8 |
| 20260504232139 | 73 | 241 | 5.0 | 13.0 | 0.00 | 0.00 | 0.00 | 49 | 998.8 |
| 20260504232033 | 73 | 222 | 6.0 | 13.0 | 0.00 | 0.00 | 0.00 | 49 | 998.8 |
| 20260504231927 | 73 | 209 | 6.0 | 13.0 | 0.00 | 0.00 | 0.00 | 49 | 998.8 |
| 20260504231821 | 73 | 221 | 6.0 | 13.0 | 0.00 | 0.00 | 0.00 | 49 | 998.8 |
| 20260504231700 | 73 | 166 | 3.0 | 13.0 | 0.00 | 0.00 | 0.00 | 49 | 998.8 |
| 20260504231610 | 73 | 226 | 5.0 | 13.0 | 0.00 | 0.00 | 0.00 | 49 | 998.8 |
| 20260504231505 | 73 | 218 | 7.0 | 13.0 | 0.00 | 0.00 | 0.00 | 49 | 998.8 |
| 20260504231355 | 73 | 241 | 3.0 | 13.0 | 0.00 | 0.00 | 0.00 | 49 | 999.3 |
| 20260504231249 | 73 | 179 | 11.0 | 13.0 | 0.00 | 0.00 | 0.00 | 49 | 998.8 |
| 20260504231201 | 73 | 207 | 4.0 | 14.0 | 0.00 | 0.00 | 0.00 | 49 | 998.8 |
| 20260504231145 | 73 | 159 | 6.0 | 14.0 | 0.00 | 0.00 | 0.00 | 49 | 998.8 |
| 20260504231038 | 73 | 254 | 4.0 | 14.0 | 0.00 | 0.00 | 0.00 | 49 | 998.8 |
| 20260504230932 | 73 | 256 | 4.0 | 14.0 | 0.00 | 0.00 | 0.00 | 49 | 998.8 |
| 20260504230826 | 74 | 196 | 6.0 | 14.0 | 0.00 | 0.00 | 0.00 | 48 | 998.8 |
| 20260504230720 | 74 | 237 | 6.0 | 14.0 | 0.00 | 0.00 | 0.00 | 49 | 998.8 |
| 20260504230654 | 74 | 270 | 3.0 | 14.0 | 0.00 | 0.00 | 0.00 | 49 | 998.8 |
| 20260504230615 | 74 | 147 | 2.0 | 14.0 | 0.00 | 0.00 | 0.00 | 48 | 999.3 |
| 20260504230509 | 74 | 283 | 7.0 | 14.0 | 0.00 | 0.00 | 0.00 | 48 | 998.8 |
| 20260504230404 | 74 | 254 | 3.0 | 14.0 | 0.00 | 0.00 | 0.00 | 48 | 998.8 |
| 20260504230302 | 74 | 252 | 10.0 | 14.0 | 0.00 | 0.00 | 0.00 | 48 | 998.8 |
| 20260504230153 | 74 | 250 | 8.0 | 11.0 | 0.00 | 0.00 | 0.00 | 48 | 998.8 |
| 20260504230059 | 74 | 280 | 4.0 | 11.0 | 0.00 | 0.00 | 0.00 | 47 | 998.5 |
| 20260504225941 | 74 | 167 | 4.0 | 13.0 | 0.00 | 0.00 | 0.00 | 47 | 998.8 |
| 20260504225835 | 74 | 223 | 3.0 | 15.0 | 0.00 | 0.00 | 0.00 | 47 | 998.8 |
| 20260504225729 | 74 | 259 | 2.0 | 15.0 | 0.00 | 0.00 | 0.00 | 47 | 998.8 |
| 20260504225642 | 74 | 204 | 5.0 | 15.0 | 0.00 | 0.00 | 0.00 | 47 | 998.8 |
| 20260504225624 | 74 | 206 | 2.0 | 15.0 | 0.00 | 0.00 | 0.00 | 47 | 998.8 |
| 20260504225519 | 74 | 200 | 2.0 | 15.0 | 0.00 | 0.00 | 0.00 | 48 | 998.8 |
| 20260504225414 | 74 | 191 | 4.0 | 18.0 | 0.00 | 0.00 | 0.00 | 48 | 998.8 |
| 20260504225308 | 74 | 181 | 4.0 | 18.0 | 0.00 | 0.00 | 0.00 | 47 | 999.3 |
| 20260504225136 | 74 | 254 | 5.0 | 18.0 | 0.00 | 0.00 | 0.00 | 47 | 998.8 |
| 20260504225057 | 74 | 195 | 5.0 | 18.0 | 0.00 | 0.00 | 0.00 | 47 | 998.8 |
| 20260504224951 | 74 | 234 | 9.0 | 18.0 | 0.00 | 0.00 | 0.00 | 47 | 998.8 |
| 20260504224845 | 74 | 226 | 5.0 | 18.0 | 0.00 | 0.00 | 0.00 | 47 | 998.8 |
| 20260504224739 | 74 | 252 | 5.0 | 18.0 | 0.00 | 0.00 | 0.00 | 47 | 998.8 |
| 20260504224634 | 74 | 212 | 8.0 | 18.0 | 0.00 | 0.00 | 0.00 | 47 | 998.8 |
| 20260504224529 | 74 | 209 | 9.0 | 18.0 | 0.00 | 0.00 | 0.00 | 47 | 998.8 |
| 20260504224423 | 74 | 157 | 12.0 | 18.0 | 0.00 | 0.00 | 0.00 | 46 | 998.5 |
| 20260504224317 | 74 | 162 | 8.0 | 14.0 | 0.00 | 0.00 | 0.00 | 46 | 998.8 |
| 20260504224211 | 74 | 253 | 9.0 | 14.0 | 0.00 | 0.00 | 0.00 | 46 | 998.8 |
| 20260504224123 | 74 | 217 | 4.0 | 14.0 | 0.00 | 0.00 | 0.00 | 46 | 998.8 |
| 20260504224106 | 74 | 218 | 4.0 | 14.0 | 0.00 | 0.00 | 0.00 | 46 | 998.8 |
| 20260504223959 | 74 | 218 | 6.0 | 23.0 | 0.00 | 0.00 | 0.00 | 46 | 998.8 |
| 20260504223853 | 74 | 231 | 7.0 | 23.0 | 0.00 | 0.00 | 0.00 | 46 | 998.8 |
| 20260504223748 | 74 | 219 | 6.0 | 23.0 | 0.00 | 0.00 | 0.00 | 46 | 998.8 |
| 20260504223642 | 74 | 288 | 10.0 | 23.0 | 0.00 | 0.00 | 0.00 | 46 | 999.3 |
| 20260504223615 | 74 | 243 | 1.0 | 23.0 | 0.00 | 0.00 | 0.00 | 46 | 998.8 |
| 20260504223537 | 74 | 221 | 2.0 | 23.0 | 0.00 | 0.00 | 0.00 | 45 | 999.3 |
| 20260504223431 | 74 | 245 | 6.0 | 23.0 | 0.00 | 0.00 | 0.00 | 46 | 999.6 |
| 20260504223325 | 74 | 250 | 4.0 | 23.0 | 0.00 | 0.00 | 0.00 | 46 | 999.3 |
| 20260504223219 | 74 | 246 | 1.0 | 23.0 | 0.00 | 0.00 | 0.00 | 46 | 999.3 |
| 20260504223114 | 74 | 188 | 12.0 | 23.0 | 0.00 | 0.00 | 0.00 | 45 | 999.6 |
| 20260504223008 | 74 | 204 | 8.0 | 16.0 | 0.00 | 0.00 | 0.00 | 46 | 999.3 |
| 20260504222902 | 74 | 239 | 8.0 | 16.0 | 0.00 | 0.00 | 0.00 | 45 | 999.6 |
| 20260504222756 | 74 | 249 | 9.0 | 16.0 | 0.00 | 0.00 | 0.00 | 45 | 999.3 |
| 20260504222651 | 74 | 229 | 9.0 | 16.0 | 0.00 | 0.00 | 0.00 | 45 | 999.6 |
| 20260504222603 | 74 | 267 | 10.0 | 16.0 | 0.00 | 0.00 | 0.00 | 45 | 999.6 |
| 20260504222546 | 74 | 210 | 11.0 | 16.0 | 0.00 | 0.00 | 0.00 | 45 | 999.6 |
| 20260504222440 | 74 | 201 | 11.0 | 16.0 | 0.00 | 0.00 | 0.00 | 44 | 999.3 |
| 20260504222334 | 75 | 224 | 8.0 | 16.0 | 0.00 | 0.00 | 0.00 | 44 | 999.6 |
| 20260504222229 | 75 | 221 | 4.0 | 16.0 | 0.00 | 0.00 | 0.00 | 44 | 999.6 |
| 20260504222124 | 75 | 182 | 1.0 | 16.0 | 0.00 | 0.00 | 0.00 | 44 | 999.6 |
| 20260504222057 | 75 | 239 | 6.0 | 16.0 | 0.00 | 0.00 | 0.00 | 44 | 999.6 |
| 20260504222017 | 75 | 279 | 5.0 | 16.0 | 0.00 | 0.00 | 0.00 | 44 | 999.6 |
| 20260504221913 | 74 | 204 | 4.0 | 16.0 | 0.00 | 0.00 | 0.00 | 44 | 999.6 |
| 20260504221807 | 74 | 207 | 5.0 | 16.0 | 0.00 | 0.00 | 0.00 | 45 | 999.3 |
| 20260504221701 | 74 | 164 | 7.0 | 16.0 | 0.00 | 0.00 | 0.00 | 44 | 999.6 |
| 20260504221554 | 75 | 227 | 6.0 | 17.0 | 0.00 | 0.00 | 0.00 | 44 | 999.6 |
| 20260504221450 | 75 | 183 | 4.0 | 17.0 | 0.00 | 0.00 | 0.00 | 44 | 999.6 |
| 20260504221344 | 75 | 211 | 13.0 | 17.0 | 0.00 | 0.00 | 0.00 | 43 | 999.6 |
| 20260504221320 | 75 | 189 | 5.0 | 17.0 | 0.00 | 0.00 | 0.00 | 43 | 999.3 |
| 20260504221315 | 75 | 158 | 1.0 | 17.0 | 0.00 | 0.00 | 0.00 | 43 | 999.6 |
| 20260504221306 | 75 | 176 | 6.0 | 17.0 | 0.00 | 0.00 | 0.00 | 43 | 999.3 |
| 20260504221026 | 75 | 189 | 6.0 | 17.0 | 0.00 | 0.00 | 0.00 | 43 | 999.6 |
| 20260504220922 | 75 | 100 | 5.0 | 21.0 | 0.00 | 0.00 | 0.00 | 43 | 1000.0 |
| 20260504220816 | 75 | 203 | 6.0 | 21.0 | 0.00 | 0.00 | 0.00 | 43 | 999.6 |
| 20260504220807 | 75 | 159 | 8.0 | 21.0 | 0.00 | 0.00 | 0.00 | 42 | 999.6 |
| 20260504220803 | 75 | 188 | 12.0 | 21.0 | 0.00 | 0.00 | 0.00 | 42 | 999.6 |
| 20260504220755 | 75 | 136 | 6.0 | 21.0 | 0.00 | 0.00 | 0.00 | 42 | 999.6 |
| 20260504220456 | 75 | 184 | 8.0 | 21.0 | 0.00 | 0.00 | 0.00 | 42 | 999.6 |
| 20260504220352 | 76 | 213 | 9.0 | 21.0 | 0.00 | 0.00 | 0.00 | 41 | 999.6 |
| 20260504220258 | 75 | 201 | 3.0 | 21.0 | 0.00 | 0.00 | 0.00 | 43 | 999.6 |
| 20260504220153 | 75 | 198 | 3.0 | 21.0 | 0.00 | 0.00 | 0.00 | 42 | 999.6 |
| 20260504220034 | 75 | 172 | 4.0 | 21.0 | 0.00 | 0.00 | 0.00 | 42 | 999.6 |
| 20260504215928 | 75 | 150 | 7.0 | 13.0 | 0.00 | 0.00 | 0.00 | 42 | 999.6 |
| 20260504215822 | 75 | 231 | 9.0 | 13.0 | 0.00 | 0.00 | 0.00 | 41 | 1000.0 |
| 20260504215752 | 75 | 236 | 5.0 | 16.0 | 0.00 | 0.00 | 0.00 | 42 | 999.6 |
| 20260504215749 | 75 | 216 | 5.0 | 14.0 | 0.00 | 0.00 | 0.00 | 41 | 1000.0 |
| 20260504215740 | 75 | 261 | 5.0 | 16.0 | 0.00 | 0.00 | 0.00 | 41 | 999.6 |
| 20260504215506 | 75 | 223 | 0.0 | 21.0 | 0.00 | 0.00 | 0.00 | 42 | 999.6 |
| 20260504215400 | 75 | 260 | 0.0 | 21.0 | 0.00 | 0.00 | 0.00 | 41 | 1000.0 |
| 20260504215259 | 74 | 236 | 7.0 | 21.0 | 0.00 | 0.00 | 0.00 | 41 | 999.6 |
| 20260504215255 | 75 | 253 | 2.0 | 21.0 | 0.00 | 0.00 | 0.00 | 42 | 1000.0 |
| 20260504215246 | 75 | 93 | 4.0 | 21.0 | 0.00 | 0.00 | 0.00 | 42 | 999.6 |
| 20260504215238 | 75 | 226 | 10.0 | 21.0 | 0.00 | 0.00 | 0.00 | 41 | 999.6 |
| 20260504214938 | 74 | 193 | 6.0 | 21.0 | 0.00 | 0.00 | 0.00 | 42 | 999.6 |
| 20260504214835 | 74 | 154 | 9.0 | 21.0 | 0.00 | 0.00 | 0.00 | 41 | 999.6 |
| 20260504214726 | 74 | 120 | 9.0 | 21.0 | 0.00 | 0.00 | 0.00 | 41 | 999.6 |
| 20260504214621 | 74 | 237 | 12.0 | 21.0 | 0.00 | 0.00 | 0.00 | 41 | 999.6 |
| 20260504214514 | 75 | 175 | 15.0 | 21.0 | 0.00 | 0.00 | 0.00 | 41 | 999.3 |
| 20260504214410 | 75 | 216 | 12.0 | 17.0 | 0.00 | 0.00 | 0.00 | 40 | 999.6 |
| 20260504214305 | 75 | 197 | 8.0 | 18.0 | 0.00 | 0.00 | 0.00 | 40 | 999.6 |
| 20260504214158 | 75 | 224 | 5.0 | 18.0 | 0.00 | 0.00 | 0.00 | 41 | 1000.0 |
| 20260504214051 | 75 | 180 | 5.0 | 19.0 | 0.00 | 0.00 | 0.00 | 40 | 1000.0 |
| 20260504214002 | 75 | 243 | 4.0 | 19.0 | 0.00 | 0.00 | 0.00 | 40 | 1000.0 |
| 20260504213945 | 75 | 206 | 5.0 | 19.0 | 0.00 | 0.00 | 0.00 | 41 | 1000.0 |
| 20260504213839 | 75 | 169 | 5.0 | 19.0 | 0.00 | 0.00 | 0.00 | 41 | 1000.0 |
| 20260504213733 | 74 | 209 | 5.0 | 23.0 | 0.00 | 0.00 | 0.00 | 41 | 999.6 |
| 20260504213629 | 74 | 224 | 7.0 | 23.0 | 0.00 | 0.00 | 0.00 | 41 | 999.6 |
| 20260504213523 | 74 | 204 | 9.0 | 23.0 | 0.00 | 0.00 | 0.00 | 40 | 1000.0 |
| 20260504213456 | 74 | 229 | 9.0 | 23.0 | 0.00 | 0.00 | 0.00 | 40 | 1000.0 |
| 20260504213417 | 74 | 243 | 13.0 | 23.0 | 0.00 | 0.00 | 0.00 | 40 | 1000.0 |
| 20260504213312 | 74 | 230 | 7.0 | 23.0 | 0.00 | 0.00 | 0.00 | 41 | 1000.0 |
| 20260504213206 | 74 | 183 | 15.0 | 23.0 | 0.00 | 0.00 | 0.00 | 40 | 1000.0 |
| 20260504213101 | 74 | 230 | 12.0 | 23.0 | 0.00 | 0.00 | 0.00 | 41 | 999.6 |
| 20260504212954 | 74 | 207 | 6.0 | 23.0 | 0.00 | 0.00 | 0.00 | 40 | 999.6 |
| 20260504212850 | 74 | 266 | 13.0 | 23.0 | 0.00 | 0.00 | 0.00 | 40 | 1000.0 |
| 20260504212743 | 74 | 186 | 8.0 | 22.0 | 0.00 | 0.00 | 0.00 | 40 | 1000.0 |
| 20260504212637 | 74 | 222 | 9.0 | 22.0 | 0.00 | 0.00 | 0.00 | 40 | 999.6 |
| 20260504212533 | 74 | 198 | 6.0 | 22.0 | 0.00 | 0.00 | 0.00 | 40 | 1000.0 |
| 20260504212443 | 74 | 216 | 8.0 | 22.0 | 0.00 | 0.00 | 0.00 | 40 | 1000.0 |
| 20260504212426 | 74 | 116 | 4.0 | 22.0 | 0.00 | 0.00 | 0.00 | 40 | 1000.0 |
| 20260504212322 | 74 | 259 | 13.0 | 22.0 | 0.00 | 0.00 | 0.00 | 40 | 1000.0 |
| 20260504212216 | 74 | 196 | 9.0 | 22.0 | 0.00 | 0.00 | 0.00 | 40 | 1000.0 |
| 20260504212108 | 74 | 205 | 16.0 | 22.0 | 0.00 | 0.00 | 0.00 | 39 | 1000.0 |
| 20260504212003 | 75 | 166 | 15.0 | 22.0 | 0.00 | 0.00 | 0.00 | 39 | 1000.0 |
| 20260504211936 | 75 | 233 | 11.0 | 22.0 | 0.00 | 0.00 | 0.00 | 40 | 1000.0 |
| 20260504211857 | 75 | 227 | 7.0 | 18.0 | 0.00 | 0.00 | 0.00 | 40 | 1000.0 |
| 20260504211751 | 74 | 179 | 7.0 | 18.0 | 0.00 | 0.00 | 0.00 | 41 | 1000.0 |
| 20260504211645 | 74 | 161 | 10.0 | 18.0 | 0.00 | 0.00 | 0.00 | 40 | 999.6 |
| 20260504211539 | 74 | 171 | 3.0 | 18.0 | 0.00 | 0.00 | 0.00 | 41 | 1000.0 |
| 20260504211434 | 74 | 199 | 9.0 | 18.0 | 0.00 | 0.00 | 0.00 | 40 | 1000.0 |
| 20260504211328 | 74 | 165 | 9.0 | 18.0 | 0.00 | 0.00 | 0.00 | 40 | 1000.0 |
| 20260504211222 | 74 | 249 | 8.0 | 18.0 | 0.00 | 0.00 | 0.00 | 40 | 1000.0 |
| 20260504211118 | 74 | 206 | 10.0 | 19.0 | 0.00 | 0.00 | 0.00 | 40 | 1000.3 |
| 20260504211012 | 74 | 91 | 4.0 | 19.0 | 0.00 | 0.00 | 0.00 | 40 | 1000.3 |
| 20260504210923 | 74 | 231 | 5.0 | 19.0 | 0.00 | 0.00 | 0.00 | 40 | 1000.3 |
| 20260504210919 | 74 | 201 | 7.0 | 19.0 | 0.00 | 0.00 | 0.00 | 40 | 1000.3 |
| 20260504210802 | 74 | 160 | 6.0 | 19.0 | 0.00 | 0.00 | 0.00 | 40 | 1000.0 |
| 20260504210655 | 74 | 270 | 8.0 | 19.0 | 0.00 | 0.00 | 0.00 | 40 | 1000.0 |
| 20260504210550 | 74 | 214 | 7.0 | 22.0 | 0.00 | 0.00 | 0.00 | 40 | 1000.0 |
| 20260504210444 | 74 | 203 | 6.0 | 22.0 | 0.00 | 0.00 | 0.00 | 40 | 1000.0 |
| 20260504210417 | 74 | 274 | 3.0 | 22.0 | 0.00 | 0.00 | 0.00 | 40 | 1000.3 |
| 20260504210338 | 74 | 291 | 9.0 | 22.0 | 0.00 | 0.00 | 0.00 | 39 | 1000.3 |
| 20260504210232 | 75 | 227 | 15.0 | 22.0 | 0.00 | 0.00 | 0.00 | 39 | 1000.3 |
| 20260504210139 | 75 | 289 | 11.0 | 22.0 | 0.00 | 0.00 | 0.00 | 39 | 1000.0 |
| 20260504210022 | 75 | 247 | 1.0 | 22.0 | 0.00 | 0.00 | 0.00 | 40 | 1000.3 |
| 20260504205915 | 74 | 235 | 5.0 | 22.0 | 0.00 | 0.00 | 0.00 | 41 | 1000.0 |
| 20260504205810 | 74 | 202 | 12.0 | 22.0 | 0.00 | 0.00 | 0.00 | 39 | 1000.0 |
| 20260504205704 | 74 | 215 | 6.0 | 22.0 | 0.00 | 0.00 | 0.00 | 39 | 1000.0 |
| 20260504205559 | 75 | 185 | 15.0 | 19.0 | 0.00 | 0.00 | 0.00 | 39 | 1000.0 |
| 20260504205453 | 75 | 133 | 11.0 | 18.0 | 0.00 | 0.00 | 0.00 | 39 | 999.6 |
| 20260504205405 | 75 | 171 | 13.0 | 18.0 | 0.00 | 0.00 | 0.00 | 39 | 1000.3 |
| 20260504205347 | 75 | 224 | 9.0 | 18.0 | 0.00 | 0.00 | 0.00 | 39 | 1000.3 |
| 20260504205241 | 76 | 224 | 14.0 | 16.0 | 0.00 | 0.00 | 0.00 | 38 | 1000.0 |
| 20260504205137 | 76 | 87 | 1.0 | 14.0 | 0.00 | 0.00 | 0.00 | 39 | 1000.0 |
| 20260504205031 | 76 | 226 | 5.0 | 14.0 | 0.00 | 0.00 | 0.00 | 37 | 1000.3 |
| 20260504204925 | 76 | 212 | 3.0 | 14.0 | 0.00 | 0.00 | 0.00 | 38 | 1000.3 |
| 20260504204858 | 76 | 235 | 4.0 | 14.0 | 0.00 | 0.00 | 0.00 | 38 | 1000.3 |
| 20260504204819 | 76 | 185 | 11.0 | 14.0 | 0.00 | 0.00 | 0.00 | 37 | 1000.0 |
| 20260504204714 | 76 | 207 | 8.0 | 14.0 | 0.00 | 0.00 | 0.00 | 37 | 1000.0 |
| 20260504204608 | 76 | 148 | 3.0 | 15.0 | 0.00 | 0.00 | 0.00 | 38 | 1000.3 |
| 20260504204502 | 76 | 244 | 4.0 | 15.0 | 0.00 | 0.00 | 0.00 | 37 | 1000.0 |
| 20260504204356 | 76 | 208 | 4.0 | 15.0 | 0.00 | 0.00 | 0.00 | 39 | 1000.3 |
| 20260504204251 | 75 | 270 | 4.0 | 17.0 | 0.00 | 0.00 | 0.00 | 39 | 1000.0 |
| 20260504204143 | 75 | 196 | 10.0 | 24.0 | 0.00 | 0.00 | 0.00 | 38 | 1000.3 |
| 20260504204037 | 75 | 226 | 4.0 | 24.0 | 0.00 | 0.00 | 0.00 | 38 | 1000.0 |
| 20260504203932 | 75 | 276 | 4.0 | 24.0 | 0.00 | 0.00 | 0.00 | 38 | 1000.0 |
| 20260504203844 | 75 | 230 | 7.0 | 24.0 | 0.00 | 0.00 | 0.00 | 39 | 1000.0 |
| 20260504203827 | 75 | 225 | 5.0 | 24.0 | 0.00 | 0.00 | 0.00 | 38 | 1000.3 |
| 20260504203721 | 75 | 128 | 5.0 | 24.0 | 0.00 | 0.00 | 0.00 | 38 | 1000.3 |
| 20260504203616 | 75 | 199 | 3.0 | 24.0 | 0.00 | 0.00 | 0.00 | 38 | 1000.0 |
| 20260504203510 | 75 | 250 | 7.0 | 24.0 | 0.00 | 0.00 | 0.00 | 39 | 1000.0 |
| 20260504203404 | 74 | 238 | 9.0 | 26.0 | 0.00 | 0.00 | 0.00 | 38 | 1000.3 |
| 20260504203338 | 74 | 251 | 6.0 | 26.0 | 0.00 | 0.00 | 0.00 | 39 | 1000.3 |
| 20260504203258 | 74 | 186 | 6.0 | 26.0 | 0.00 | 0.00 | 0.00 | 39 | 1000.0 |
| 20260504203153 | 74 | 184 | 17.0 | 26.0 | 0.00 | 0.00 | 0.00 | 38 | 1000.0 |
| 20260504203047 | 74 | 203 | 12.0 | 26.0 | 0.00 | 0.00 | 0.00 | 38 | 1000.0 |
| 20260504202941 | 74 | 205 | 10.0 | 26.0 | 0.00 | 0.00 | 0.00 | 39 | 1000.3 |
| 20260504202835 | 74 | 174 | 11.0 | 26.0 | 0.00 | 0.00 | 0.00 | 39 | 1000.3 |
| 20260504202730 | 74 | 269 | 6.0 | 26.0 | 0.00 | 0.00 | 0.00 | 39 | 1000.3 |
| 20260504202624 | 74 | 140 | 7.0 | 26.0 | 0.00 | 0.00 | 0.00 | 39 | 1000.3 |
| 20260504202519 | 75 | 142 | 9.0 | 26.0 | 0.00 | 0.00 | 0.00 | 38 | 1000.3 |
| 20260504202413 | 75 | 216 | 11.0 | 25.0 | 0.00 | 0.00 | 0.00 | 37 | 1000.0 |
| 20260504202325 | 75 | 215 | 8.0 | 25.0 | 0.00 | 0.00 | 0.00 | 38 | 1000.3 |
| 20260504202308 | 75 | 79 | 6.0 | 25.0 | 0.00 | 0.00 | 0.00 | 38 | 1000.3 |
| 20260504202202 | 74 | 173 | 3.0 | 25.0 | 0.00 | 0.00 | 0.00 | 38 | 1000.0 |
| 20260504202056 | 74 | 200 | 9.0 | 25.0 | 0.00 | 0.00 | 0.00 | 38 | 1000.3 |
| 20260504201950 | 74 | 217 | 15.0 | 21.0 | 0.00 | 0.00 | 0.00 | 38 | 1000.3 |
| 20260504201844 | 74 | 191 | 14.0 | 19.0 | 0.00 | 0.00 | 0.00 | 38 | 1000.3 |
| 20260504201818 | 74 | 216 | 12.0 | 19.0 | 0.00 | 0.00 | 0.00 | 38 | 1000.6 |
| 20260504201739 | 74 | 162 | 6.0 | 19.0 | 0.00 | 0.00 | 0.00 | 38 | 1000.6 |
| 20260504201633 | 74 | 225 | 10.0 | 19.0 | 0.00 | 0.00 | 0.00 | 37 | 1000.3 |
| 20260504201527 | 75 | 313 | 6.0 | 19.0 | 0.00 | 0.00 | 0.00 | 37 | 1000.3 |
| 20260504201422 | 75 | 195 | 8.0 | 19.0 | 0.00 | 0.00 | 0.00 | 37 | 1000.3 |
| 20260504201316 | 75 | 232 | 9.0 | 19.0 | 0.00 | 0.00 | 0.00 | 38 | 1000.3 |
| 20260504201210 | 75 | 221 | 9.0 | 19.0 | 0.00 | 0.00 | 0.00 | 37 | 1000.3 |
| 20260504201106 | 75 | 219 | 16.0 | 19.0 | 0.00 | 0.00 | 0.00 | 36 | 1000.3 |
| 20260504200958 | 75 | 243 | 7.0 | 17.0 | 0.00 | 0.00 | 0.00 | 36 | 1000.3 |
| 20260504200854 | 76 | 202 | 7.0 | 17.0 | 0.00 | 0.00 | 0.00 | 36 | 1000.0 |
| 20260504200805 | 76 | 179 | 5.0 | 17.0 | 0.00 | 0.00 | 0.00 | 35 | 1000.3 |
| 20260504200748 | 76 | 215 | 4.0 | 17.0 | 0.00 | 0.00 | 0.00 | 35 | 1000.3 |
| 20260504200642 | 76 | 209 | 7.0 | 17.0 | 0.00 | 0.00 | 0.00 | 35 | 1000.3 |
| 20260504200536 | 76 | 205 | 8.0 | 17.0 | 0.00 | 0.00 | 0.00 | 33 | 1000.3 |
| 20260504200431 | 76 | 340 | 6.0 | 21.0 | 0.00 | 0.00 | 0.00 | 34 | 1000.3 |
| 20260504200325 | 76 | 136 | 4.0 | 21.0 | 0.00 | 0.00 | 0.00 | 33 | 1000.0 |
| 20260504200259 | 76 | 225 | 9.0 | 21.0 | 0.00 | 0.00 | 0.00 | 32 | 1000.0 |
| 20260504200220 | 76 | 227 | 13.0 | 21.0 | 0.00 | 0.00 | 0.00 | 32 | 1000.3 |
| 20260504200117 | 76 | 244 | 9.0 | 21.0 | 0.00 | 0.00 | 0.00 | 33 | 1000.3 |
| 20260504200008 | 76 | 197 | 8.0 | 21.0 | 0.00 | 0.00 | 0.00 | 34 | 1000.3 |
| 20260504195903 | 75 | 226 | 11.0 | 21.0 | 0.00 | 0.00 | 0.00 | 33 | 1000.3 |
| 20260504195757 | 75 | 218 | 4.0 | 21.0 | 0.00 | 0.00 | 0.00 | 35 | 1000.3 |
| 20260504195651 | 75 | 176 | 9.0 | 21.0 | 0.00 | 0.00 | 0.00 | 36 | 1000.3 |
| 20260504195545 | 75 | 195 | 10.0 | 21.0 | 0.00 | 0.00 | 0.00 | 35 | 1000.3 |
| 20260504195440 | 75 | 186 | 9.0 | 18.0 | 0.00 | 0.00 | 0.00 | 34 | 1000.6 |
| 20260504195334 | 75 | 238 | 10.0 | 18.0 | 0.00 | 0.00 | 0.00 | 32 | 1000.3 |
| 20260504195229 | 75 | 256 | 8.0 | 18.0 | 0.00 | 0.00 | 0.00 | 33 | 1000.3 |
| 20260504195123 | 75 | 238 | 5.0 | 18.0 | 0.00 | 0.00 | 0.00 | 33 | 1000.3 |
| 20260504195017 | 76 | 261 | 9.0 | 18.0 | 0.00 | 0.00 | 0.00 | 33 | 1000.3 |
| 20260504194912 | 76 | 234 | 13.0 | 18.0 | 0.00 | 0.00 | 0.00 | 31 | 1000.6 |
| 20260504194806 | 76 | 222 | 12.0 | 15.0 | 0.00 | 0.00 | 0.00 | 31 | 1000.6 |
| 20260504194740 | 76 | 210 | 4.0 | 15.0 | 0.00 | 0.00 | 0.00 | 32 | 1000.6 |
| 20260504194700 | 76 | 207 | 9.0 | 15.0 | 0.00 | 0.00 | 0.00 | 31 | 1000.6 |
| 20260504194554 | 76 | 204 | 9.0 | 15.0 | 0.00 | 0.00 | 0.00 | 32 | 1000.6 |
| 20260504194449 | 76 | 247 | 8.0 | 14.0 | 0.00 | 0.00 | 0.00 | 32 | 1000.3 |
| 20260504194344 | 76 | 208 | 4.0 | 17.0 | 0.00 | 0.00 | 0.00 | 33 | 1000.3 |
| 20260504194238 | 76 | 196 | 8.0 | 19.0 | 0.00 | 0.00 | 0.00 | 33 | 1000.3 |
| 20260504194132 | 76 | 220 | 0.0 | 19.0 | 0.00 | 0.00 | 0.00 | 32 | 1000.3 |
| 20260504194025 | 75 | 226 | 4.0 | 19.0 | 0.00 | 0.00 | 0.00 | 34 | 1000.6 |
| 20260504193920 | 75 | 175 | 10.0 | 19.0 | 0.00 | 0.00 | 0.00 | 32 | 1000.6 |
| 20260504193815 | 75 | 227 | 8.0 | 19.0 | 0.00 | 0.00 | 0.00 | 34 | 1001.0 |
| 20260504193727 | 75 | 246 | 11.0 | 19.0 | 0.00 | 0.00 | 0.00 | 34 | 1000.3 |
| 20260504193709 | 75 | 298 | 2.0 | 19.0 | 0.00 | 0.00 | 0.00 | 35 | 1000.3 |
| 20260504193603 | 75 | 179 | 5.0 | 19.0 | 0.00 | 0.00 | 0.00 | 33 | 1000.6 |
| 20260504193457 | 75 | 155 | 11.0 | 19.0 | 0.00 | 0.00 | 0.00 | 33 | 1000.3 |
| 20260504193351 | 75 | 196 | 9.0 | 19.0 | 0.00 | 0.00 | 0.00 | 36 | 1000.3 |
| 20260504193246 | 75 | 210 | 0.0 | 18.0 | 0.00 | 0.00 | 0.00 | 37 | 1000.6 |
| 20260504193218 | 75 | 206 | 1.0 | 18.0 | 0.00 | 0.00 | 0.00 | 37 | 1000.3 |
| 20260504193139 | 75 | 239 | 2.0 | 18.0 | 0.00 | 0.00 | 0.00 | 38 | 1000.3 |
| 20260504193035 | 75 | 193 | 6.0 | 18.0 | 0.00 | 0.00 | 0.00 | 38 | 1000.3 |
| 20260504192928 | 75 | 224 | 2.0 | 18.0 | 0.00 | 0.00 | 0.00 | 38 | 1000.6 |
| 20260504192823 | 74 | 245 | 2.0 | 18.0 | 0.00 | 0.00 | 0.00 | 41 | 1000.3 |
| 20260504192717 | 74 | 216 | 9.0 | 18.0 | 0.00 | 0.00 | 0.00 | 39 | 1000.3 |
| 20260504192612 | 75 | 240 | 8.0 | 18.0 | 0.00 | 0.00 | 0.00 | 39 | 1000.6 |
| 20260504192506 | 75 | 184 | 6.0 | 18.0 | 0.00 | 0.00 | 0.00 | 39 | 1000.6 |
| 20260504192401 | 75 | 229 | 11.0 | 18.0 | 0.00 | 0.00 | 0.00 | 38 | 1000.6 |
| 20260504192255 | 75 | 207 | 9.0 | 15.0 | 0.00 | 0.00 | 0.00 | 39 | 1000.6 |
| 20260504192207 | 75 | 197 | 7.0 | 15.0 | 0.00 | 0.00 | 0.00 | 39 | 1000.6 |
| 20260504192150 | 75 | 171 | 6.0 | 15.0 | 0.00 | 0.00 | 0.00 | 39 | 1000.6 |
| 20260504192043 | 75 | 238 | 8.0 | 15.0 | 0.00 | 0.00 | 0.00 | 39 | 1000.6 |
| 20260504191937 | 75 | 254 | 9.0 | 15.0 | 0.00 | 0.00 | 0.00 | 40 | 1000.6 |
| 20260504191831 | 75 | 220 | 5.0 | 15.0 | 0.00 | 0.00 | 0.00 | 37 | 1000.6 |
| 20260504191725 | 76 | 284 | 6.0 | 15.0 | 0.00 | 0.00 | 0.00 | 37 | 1001.0 |
| 20260504191659 | 76 | 258 | 8.0 | 15.0 | 0.00 | 0.00 | 0.00 | 37 | 1001.0 |
| 20260504191620 | 76 | 256 | 11.0 | 15.0 | 0.00 | 0.00 | 0.00 | 36 | 1000.6 |
| 20260504191514 | 75 | 222 | 3.0 | 14.0 | 0.00 | 0.00 | 0.00 | 37 | 1001.0 |
| 20260504191409 | 75 | 221 | 6.0 | 14.0 | 0.00 | 0.00 | 0.00 | 40 | 1001.0 |
| 20260504191304 | 75 | 145 | 8.0 | 15.0 | 0.00 | 0.00 | 0.00 | 38 | 1000.6 |
| 20260504191158 | 75 | 234 | 10.0 | 15.0 | 0.00 | 0.00 | 0.00 | 38 | 1000.6 |
| 20260504191053 | 75 | 166 | 5.0 | 15.0 | 0.00 | 0.00 | 0.00 | 38 | 1000.6 |
| 20260504190947 | 75 | 237 | 5.0 | 16.0 | 0.00 | 0.00 | 0.00 | 39 | 1000.6 |
| 20260504190841 | 74 | 188 | 5.0 | 18.0 | 0.00 | 0.00 | 0.00 | 40 | 1001.0 |
| 20260504190735 | 75 | 230 | 5.0 | 21.0 | 0.00 | 0.00 | 0.00 | 39 | 1001.0 |
| 20260504190647 | 75 | 238 | 3.0 | 21.0 | 0.00 | 0.00 | 0.00 | 40 | 1001.0 |
| 20260504190631 | 75 | 203 | 6.0 | 21.0 | 0.00 | 0.00 | 0.00 | 38 | 1001.0 |
| 20260504190524 | 75 | 268 | 11.0 | 21.0 | 0.00 | 0.00 | 0.00 | 39 | 1001.0 |
| 20260504190419 | 74 | 224 | 7.0 | 21.0 | 0.00 | 0.00 | 0.00 | 39 | 1001.0 |
| 20260504190313 | 74 | 206 | 9.0 | 21.0 | 0.00 | 0.00 | 0.00 | 40 | 1000.6 |
| 20260504190208 | 74 | 234 | 9.0 | 21.0 | 0.00 | 0.00 | 0.00 | 39 | 1001.0 |
| 20260504190141 | 74 | 185 | 12.0 | 21.0 | 0.00 | 0.00 | 0.00 | 39 | 1001.0 |
| 20260504190115 | 74 | 232 | 6.0 | 21.0 | 0.00 | 0.00 | 0.00 | 39 | 1001.0 |
| 20260504185956 | 74 | 247 | 12.0 | 21.0 | 0.00 | 0.00 | 0.00 | 39 | 1001.0 |
| 20260504185851 | 74 | 237 | 10.0 | 21.0 | 0.00 | 0.00 | 0.00 | 39 | 1000.6 |
| 20260504185745 | 74 | 196 | 12.0 | 19.0 | 0.00 | 0.00 | 0.00 | 38 | 1001.0 |
| 20260504185638 | 74 | 255 | 4.0 | 19.0 | 0.00 | 0.00 | 0.00 | 39 | 1000.6 |
| 20260504185532 | 74 | 267 | 1.0 | 19.0 | 0.00 | 0.00 | 0.00 | 40 | 1001.0 |
| 20260504185428 | 74 | 225 | 2.0 | 19.0 | 0.00 | 0.00 | 0.00 | 38 | 1001.0 |
| 20260504185322 | 75 | 167 | 12.0 | 19.0 | 0.00 | 0.00 | 0.00 | 38 | 1001.0 |
| 20260504185216 | 75 | 265 | 7.0 | 19.0 | 0.00 | 0.00 | 0.00 | 37 | 1001.0 |
| 20260504185128 | 74 | 140 | 6.0 | 19.0 | 0.00 | 0.00 | 0.00 | 37 | 1001.0 |
| 20260504185110 | 74 | 208 | 4.0 | 19.0 | 0.00 | 0.00 | 0.00 | 40 | 1001.0 |
| 20260504185005 | 74 | 244 | 6.0 | 19.0 | 0.00 | 0.00 | 0.00 | 38 | 1001.0 |
| 20260504184859 | 75 | 187 | 10.0 | 19.0 | 0.00 | 0.00 | 0.00 | 37 | 1001.3 |
| 20260504184753 | 75 | 207 | 10.0 | 18.0 | 0.00 | 0.00 | 0.00 | 38 | 1001.0 |
| 20260504184648 | 76 | 230 | 8.0 | 17.0 | 0.00 | 0.00 | 0.00 | 37 | 1001.0 |
| 20260504184622 | 76 | 172 | 10.0 | 17.0 | 0.00 | 0.00 | 0.00 | 36 | 1001.0 |
| 20260504184543 | 76 | 225 | 5.0 | 17.0 | 0.00 | 0.00 | 0.00 | 38 | 1001.0 |
| 20260504184437 | 76 | 210 | 7.0 | 17.0 | 0.00 | 0.00 | 0.00 | 38 | 1001.0 |
| 20260504184332 | 75 | 207 | 3.0 | 17.0 | 0.00 | 0.00 | 0.00 | 37 | 1001.0 |
| 20260504184226 | 75 | 228 | 3.0 | 21.0 | 0.00 | 0.00 | 0.00 | 38 | 1001.0 |
| 20260504184120 | 74 | 241 | 3.0 | 21.0 | 0.00 | 0.00 | 0.00 | 39 | 1001.0 |
| 20260504184015 | 74 | 183 | 2.0 | 21.0 | 0.00 | 0.00 | 0.00 | 39 | 1001.0 |
| 20260504183909 | 74 | 298 | 7.0 | 21.0 | 0.00 | 0.00 | 0.00 | 39 | 1001.0 |
| 20260504183804 | 74 | 217 | 10.0 | 21.0 | 0.00 | 0.00 | 0.00 | 39 | 1001.0 |
| 20260504183658 | 74 | 252 | 6.0 | 21.0 | 0.00 | 0.00 | 0.00 | 38 | 1001.0 |
| 20260504183609 | 74 | 248 | 10.0 | 21.0 | 0.00 | 0.00 | 0.00 | 38 | 1001.0 |
| 20260504183552 | 74 | 203 | 7.0 | 21.0 | 0.00 | 0.00 | 0.00 | 38 | 1001.0 |
| 20260504183446 | 74 | 240 | 6.0 | 21.0 | 0.00 | 0.00 | 0.00 | 38 | 1001.3 |
| 20260504183341 | 74 | 218 | 9.0 | 21.0 | 0.00 | 0.00 | 0.00 | 38 | 1001.0 |
| 20260504183235 | 73 | 234 | 5.0 | 21.0 | 0.00 | 0.00 | 0.00 | 42 | 1001.0 |
| 20260504183130 | 73 | 149 | 1.0 | 21.0 | 0.00 | 0.00 | 0.00 | 40 | 1001.3 |
| 20260504183103 | 73 | 113 | 1.0 | 22.0 | 0.00 | 0.00 | 0.00 | 40 | 1001.3 |
| 20260504183024 | 74 | 133 | 6.0 | 22.0 | 0.00 | 0.00 | 0.00 | 40 | 1001.3 |
| 20260504182919 | 74 | 166 | 1.0 | 22.0 | 0.00 | 0.00 | 0.00 | 39 | 1001.3 |
| 20260504182813 | 74 | 191 | 3.0 | 22.0 | 0.00 | 0.00 | 0.00 | 41 | 1001.0 |
| 20260504182707 | 74 | 167 | 10.0 | 22.0 | 0.00 | 0.00 | 0.00 | 39 | 1001.0 |
| 20260504182601 | 74 | 201 | 11.0 | 22.0 | 0.00 | 0.00 | 0.00 | 41 | 1001.3 |
| 20260504182456 | 74 | 294 | 7.0 | 22.0 | 0.00 | 0.00 | 0.00 | 39 | 1001.3 |
| 20260504182349 | 74 | 184 | 4.0 | 22.0 | 0.00 | 0.00 | 0.00 | 42 | 1001.3 |
| 20260504182245 | 73 | 208 | 7.0 | 22.0 | 0.00 | 0.00 | 0.00 | 42 | 1001.3 |
| 20260504182139 | 73 | 183 | 13.0 | 22.0 | 0.00 | 0.00 | 0.00 | 41 | 1001.3 |
| 20260504182051 | 73 | 158 | 11.0 | 19.0 | 0.00 | 0.00 | 0.00 | 40 | 1001.0 |
| 20260504182033 | 73 | 237 | 6.0 | 19.0 | 0.00 | 0.00 | 0.00 | 41 | 1001.3 |
| 20260504181928 | 73 | 206 | 10.0 | 19.0 | 0.00 | 0.00 | 0.00 | 41 | 1001.3 |
| 20260504181835 | 73 | 269 | 5.0 | 19.0 | 0.00 | 0.00 | 0.00 | 41 | 1001.0 |
| 20260504181717 | 73 | 208 | 9.0 | 19.0 | 0.00 | 0.00 | 0.00 | 41 | 1001.3 |
| 20260504181654 | 73 | 217 | 7.0 | 11.0 | 0.00 | 0.00 | 0.00 | 39 | 1002.0 |
| 20260504181650 | 73 | 152 | 2.0 | 16.0 | 0.00 | 0.00 | 0.00 | 41 | 1001.6 |
| 20260504181645 | 73 | 218 | 6.0 | 17.0 | 0.00 | 0.00 | 0.00 | 42 | 1001.3 |
| 20260504181641 | 72 | 123 | 3.0 | 21.0 | 0.00 | 0.00 | 0.00 | 43 | 1001.6 |
| 20260504181637 | 73 | 186 | 2.0 | 19.0 | 0.00 | 0.00 | 0.00 | 41 | 1001.3 |
| 20260504181626 | 73 | 188 | 12.0 | 19.0 | 0.00 | 0.00 | 0.00 | 40 | 1001.3 |
| 20260504181622 | 73 | 116 | 12.0 | 19.0 | 0.00 | 0.00 | 0.00 | 40 | 1001.3 |
| 20260504181401 | 73 | 199 | 7.0 | 19.0 | 0.00 | 0.00 | 0.00 | 41 | 1001.3 |
| 20260504181352 | 74 | 198 | 12.0 | 19.0 | 0.00 | 0.00 | 0.00 | 40 | 1001.3 |
| 20260504181344 | 73 | 176 | 13.0 | 18.0 | 0.00 | 0.00 | 0.00 | 40 | 1001.3 |
| 20260504181113 | 73 | 170 | 4.0 | 18.0 | 0.00 | 0.00 | 0.00 | 42 | 1001.3 |
| 20260504181105 | 73 | 146 | 14.0 | 18.0 | 0.00 | 0.00 | 0.00 | 40 | 1001.3 |
| 20260504180845 | 73 | 94 | 9.0 | 18.0 | 0.00 | 0.00 | 0.00 | 41 | 1001.6 |
| 20260504180837 | 73 | 273 | 3.0 | 15.0 | 0.00 | 0.00 | 0.00 | 41 | 1001.6 |
| 20260504180828 | 73 | 200 | 5.0 | 16.0 | 0.00 | 0.00 | 0.00 | 42 | 1001.3 |
| 20260504180606 | 73 | 184 | 4.0 | 17.0 | 0.00 | 0.00 | 0.00 | 41 | 1001.6 |
| 20260504180557 | 73 | 243 | 2.0 | 17.0 | 0.00 | 0.00 | 0.00 | 41 | 1001.6 |
| 20260504180337 | 73 | 218 | 7.0 | 17.0 | 0.00 | 0.00 | 0.00 | 41 | 1001.6 |
| 20260504180329 | 73 | 188 | 3.0 | 17.0 | 0.00 | 0.00 | 0.00 | 40 | 1001.6 |
| 20260504180320 | 73 | 218 | 6.0 | 17.0 | 0.00 | 0.00 | 0.00 | 42 | 1001.3 |
| 20260504180056 | 73 | 203 | 8.0 | 17.0 | 0.00 | 0.00 | 0.00 | 40 | 1001.3 |
| 20260504180035 | 73 | 225 | 6.0 | 19.0 | 0.00 | 0.00 | 0.00 | 41 | 1001.6 |
| 20260504175810 | 73 | 226 | 6.0 | 19.0 | 0.00 | 0.00 | 0.00 | 42 | 1001.6 |
| 20260504175801 | 72 | 187 | 13.0 | 19.0 | 0.00 | 0.00 | 0.00 | 41 | 1001.6 |
| 20260504175534 | 72 | 226 | 9.0 | 19.0 | 0.00 | 0.00 | 0.00 | 42 | 1001.3 |
| 20260504175526 | 72 | 235 | 4.0 | 21.0 | 0.00 | 0.00 | 0.00 | 42 | 1001.6 |
| 20260504175517 | 72 | 211 | 7.0 | 21.0 | 0.00 | 0.00 | 0.00 | 41 | 1001.6 |
| 20260504175255 | 72 | 183 | 3.0 | 21.0 | 0.00 | 0.00 | 0.00 | 42 | 1001.6 |
| 20260504175246 | 72 | 181 | 5.0 | 21.0 | 0.00 | 0.00 | 0.00 | 42 | 1001.6 |
| 20260504175025 | 72 | 329 | 7.0 | 21.0 | 0.00 | 0.00 | 0.00 | 42 | 1001.6 |
| 20260504175015 | 72 | 211 | 9.0 | 21.0 | 0.00 | 0.00 | 0.00 | 43 | 1002.0 |
| 20260504174754 | 72 | 226 | 6.0 | 21.0 | 0.00 | 0.00 | 0.00 | 42 | 1001.6 |
| 20260504174745 | 73 | 239 | 1.0 | 21.0 | 0.00 | 0.00 | 0.00 | 42 | 1001.6 |
| 20260504174737 | 73 | 210 | 11.0 | 21.0 | 0.00 | 0.00 | 0.00 | 40 | 1001.6 |
| 20260504174511 | 73 | 132 | 0.0 | 21.0 | 0.00 | 0.00 | 0.00 | 41 | 1001.6 |
| 20260504174506 | 73 | 203 | 11.0 | 21.0 | 0.00 | 0.00 | 0.00 | 40 | 1001.6 |
| 20260504174457 | 73 | 210 | 9.0 | 16.0 | 0.00 | 0.00 | 0.00 | 41 | 1001.6 |
| 20260504174234 | 73 | 205 | 2.0 | 11.0 | 0.00 | 0.00 | 0.00 | 40 | 1001.6 |
| 20260504174225 | 73 | 210 | 3.0 | 11.0 | 0.00 | 0.00 | 0.00 | 40 | 1001.6 |
| 20260504174215 | 73 | 217 | 7.0 | 11.0 | 0.00 | 0.00 | 0.00 | 39 | 1002.0 |
| 20260504173953 | 73 | 233 | 5.0 | 17.0 | 0.00 | 0.00 | 0.00 | 39 | 1002.0 |
| 20260504173948 | 73 | 112 | 3.0 | 11.0 | 0.00 | 0.00 | 0.00 | 39 | 1001.6 |
| 20260504173940 | 73 | 252 | 7.0 | 11.0 | 0.00 | 0.00 | 0.00 | 39 | 1001.6 |
| 20260504173717 | 73 | 275 | 4.0 | 14.0 | 0.00 | 0.00 | 0.00 | 39 | 1002.0 |
| 20260504173709 | 73 | 223 | 4.0 | 17.0 | 0.00 | 0.00 | 0.00 | 39 | 1002.0 |
| 20260504173431 | 73 | 244 | 7.0 | 17.0 | 0.00 | 0.00 | 0.00 | 39 | 1001.6 |
| 20260504173325 | 72 | 236 | 0.0 | 17.0 | 0.00 | 0.00 | 0.00 | 41 | 1002.0 |
| 20260504173220 | 72 | 262 | 5.0 | 17.0 | 0.00 | 0.00 | 0.00 | 41 | 1002.0 |
| 20260504173114 | 72 | 241 | 4.0 | 17.0 | 0.00 | 0.00 | 0.00 | 39 | 1002.3 |
| 20260504173008 | 72 | 272 | 0.0 | 17.0 | 0.00 | 0.00 | 0.00 | 42 | 1002.0 |
| 20260504172942 | 72 | 80 | 3.0 | 17.0 | 0.00 | 0.00 | 0.00 | 42 | 1002.0 |
| 20260504172902 | 72 | 236 | 5.0 | 17.0 | 0.00 | 0.00 | 0.00 | 38 | 1002.3 |
| 20260504172756 | 72 | 237 | 8.0 | 17.0 | 0.00 | 0.00 | 0.00 | 40 | 1002.3 |
| 20260504172651 | 73 | 183 | 5.0 | 17.0 | 0.00 | 0.00 | 0.00 | 41 | 1002.0 |
| 20260504172545 | 73 | 229 | 4.0 | 17.0 | 0.00 | 0.00 | 0.00 | 41 | 1002.3 |
| 20260504172439 | 72 | 224 | 4.0 | 13.0 | 0.00 | 0.00 | 0.00 | 41 | 1002.0 |
| 20260504172334 | 72 | 222 | 3.0 | 13.0 | 0.00 | 0.00 | 0.00 | 41 | 1002.0 |
| 20260504172229 | 72 | 232 | 6.0 | 13.0 | 0.00 | 0.00 | 0.00 | 41 | 1002.3 |
| 20260504172123 | 73 | 230 | 6.0 | 14.0 | 0.00 | 0.00 | 0.00 | 41 | 1002.0 |
| 20260504172018 | 74 | 241 | 7.0 | 16.0 | 0.00 | 0.00 | 0.00 | 40 | 1002.0 |
| 20260504171928 | 74 | 199 | 11.0 | 16.0 | 0.00 | 0.00 | 0.00 | 39 | 1002.3 |
| 20260504171912 | 74 | 201 | 6.0 | 16.0 | 0.00 | 0.00 | 0.00 | 39 | 1002.3 |
| 20260504171807 | 74 | 222 | 4.0 | 16.0 | 0.00 | 0.00 | 0.00 | 41 | 1002.0 |
| 20260504171700 | 73 | 209 | 1.0 | 16.0 | 0.00 | 0.00 | 0.00 | 41 | 1002.0 |
| 20260504171555 | 73 | 193 | 4.0 | 16.0 | 0.00 | 0.00 | 0.00 | 41 | 1002.0 |
| 20260504171449 | 73 | 233 | 8.0 | 16.0 | 0.00 | 0.00 | 0.00 | 40 | 1002.3 |
| 20260504171423 | 72 | 245 | 2.0 | 16.0 | 0.00 | 0.00 | 0.00 | 42 | 1002.3 |
| 20260504171344 | 72 | 206 | 4.0 | 16.0 | 0.00 | 0.00 | 0.00 | 40 | 1002.3 |
| 20260504171238 | 72 | 162 | 4.0 | 16.0 | 0.00 | 0.00 | 0.00 | 42 | 1002.3 |
| 20260504171132 | 72 | 262 | 12.0 | 16.0 | 0.00 | 0.00 | 0.00 | 41 | 1002.3 |
| 20260504171029 | 72 | 206 | 6.0 | 11.0 | 0.00 | 0.00 | 0.00 | 42 | 1002.3 |
| 20260504170921 | 72 | 252 | 6.0 | 11.0 | 0.00 | 0.00 | 0.00 | 42 | 1002.3 |
| 20260504170816 | 72 | 250 | 0.0 | 11.0 | 0.00 | 0.00 | 0.00 | 41 | 1002.3 |
| 20260504170710 | 72 | 206 | 2.0 | 11.0 | 0.00 | 0.00 | 0.00 | 40 | 1002.3 |
| 20260504170605 | 72 | 235 | 2.0 | 11.0 | 0.00 | 0.00 | 0.00 | 39 | 1002.3 |
| 20260504170459 | 72 | 306 | 8.0 | 19.0 | 0.00 | 0.00 | 0.00 | 39 | 1002.3 |
| 20260504170410 | 72 | 190 | 8.0 | 19.0 | 0.00 | 0.00 | 0.00 | 39 | 1002.3 |
| 20260504170353 | 73 | 198 | 7.0 | 19.0 | 0.00 | 0.00 | 0.00 | 38 | 1002.3 |
| 20260504170247 | 72 | 206 | 6.0 | 19.0 | 0.00 | 0.00 | 0.00 | 39 | 1002.3 |
| 20260504170142 | 72 | 41 | 6.0 | 19.0 | 0.00 | 0.00 | 0.00 | 40 | 1002.0 |